LA METEO DE GRANDFRESNOY - OISE - (60) - ALT.75 m
Donnes mto: Actuelle mardi, 21/05/2019 11:10
Date Horaire Temp. E. Hum. E. P.atmo. Pluie Vent Direction Direction Ensoleilleme Horaire Temp Ev.Tr. UV Ray;solaire P. de rose Temp au vent Rafales Rception
21/05/2019 11:10 18,3 C 73 % 1017,0 hPa 0,0 mm 12,2 km/h (2 Bft) N-NE 24 1 min 0 min 0,000 mm 3,0 UV-I 723 W/m 13,4 C 16,0 C 17,7 km/h (3 Bft) 100,00 %
21/05/2019 11:09 18,3 C 74 % 1017,0 hPa 0,0 mm 12,6 km/h (3 Bft) NE 53 1 min 0 min 0,000 mm 3,0 UV-I 750 W/m 13,6 C 15,9 C 17,7 km/h (3 Bft) 100,00 %
21/05/2019 11:08 18,3 C 74 % 1017,0 hPa 0,0 mm 12,7 km/h (3 Bft) N-NE 21 1 min 0 min 0,000 mm 3,0 UV-I 746 W/m 13,6 C 15,9 C 15,9 km/h (3 Bft) 100,00 %
21/05/2019 11:07 18,3 C 72 % 1017,0 hPa 0,0 mm 15,1 km/h (3 Bft) N 5 1 min 0 min 0,000 mm 2,9 UV-I 743 W/m 13,2 C 15,2 C 26,6 km/h (4 Bft) 93,33 %
21/05/2019 11:06 18,2 C 72 % 1017,0 hPa 0,0 mm 13,4 km/h (3 Bft) N-NE 17 1 min 0 min 0,000 mm 2,9 UV-I 738 W/m 13,1 C 15,5 C 21,2 km/h (4 Bft) 100,00 %
21/05/2019 11:05 18,2 C 72 % 1017,0 hPa 0,0 mm 15,5 km/h (3 Bft) NE 51 1 min 0 min 0,000 mm 3,0 UV-I 763 W/m 13,1 C 14,9 C 21,2 km/h (4 Bft) 96,15 %
21/05/2019 11:04 18,2 C 73 % 1017,0 hPa 0,0 mm 16,7 km/h (3 Bft) NE 40 1 min 0 min 0,000 mm 2,9 UV-I 759 W/m 13,3 C 14,6 C 21,2 km/h (4 Bft) 95,83 %
21/05/2019 11:03 18,1 C 74 % 1016,9 hPa 0,0 mm 14,3 km/h (3 Bft) NE 40 1 min 0 min 0,000 mm 2,8 UV-I 767 W/m 13,4 C 15,1 C 19,5 km/h (3 Bft) 100,00 %
21/05/2019 11:02 18,1 C 74 % 1017,0 hPa 0,0 mm 12,4 km/h (2 Bft) N 10 1 min 0 min 0,000 mm 2,8 UV-I 779 W/m 13,4 C 15,7 C 23,0 km/h (4 Bft) 96,00 %
21/05/2019 11:01 18,0 C 74 % 1017,0 hPa 0,0 mm 12,6 km/h (3 Bft) NE 40 1 min 0 min 0,356 mm 2,8 UV-I 790 W/m 13,3 C 15,5 C 19,5 km/h (3 Bft) 100,00 %
21/05/2019 11:00 17,9 C 73 % 1017,0 hPa 0,0 mm 11,6 km/h (2 Bft) N-NE 17 1 min 0 min 0,000 mm 2,9 UV-I 813 W/m 13,0 C 15,7 C 21,2 km/h (4 Bft) 100,00 %
21/05/2019 10:59 17,9 C 73 % 1017,0 hPa 0,0 mm 15,1 km/h (3 Bft) N-NE 21 1 min 0 min 0,000 mm 2,8 UV-I 780 W/m 13,0 C 14,7 C 19,5 km/h (3 Bft) 100,00 %
21/05/2019 10:58 17,9 C 73 % 1016,9 hPa 0,0 mm 10,7 km/h (2 Bft) N 5 1 min 0 min 0,000 mm 2,4 UV-I 700 W/m 13,0 C 16,1 C 17,7 km/h (3 Bft) 95,83 %
21/05/2019 10:57 18,1 C 73 % 1016,9 hPa 0,0 mm 12,3 km/h (2 Bft) N 5 1 min 0 min 0,000 mm 2,1 UV-I 700 W/m 13,2 C 15,7 C 17,7 km/h (3 Bft) 100,00 %
21/05/2019 10:56 18,1 C 74 % 1016,9 hPa 0,0 mm 11,8 km/h (2 Bft) N 5 1 min 0 min 0,000 mm 2,1 UV-I 700 W/m 13,4 C 15,9 C 15,9 km/h (3 Bft) 96,00 %
21/05/2019 10:55 18,1 C 74 % 1016,9 hPa 0,0 mm 15,9 km/h (3 Bft) NE 56 1 min 0 min 0,000 mm 2,4 UV-I 700 W/m 13,4 C 14,7 C 23,0 km/h (4 Bft) 96,15 %
21/05/2019 10:54 18,1 C 74 % 1016,9 hPa 0,0 mm 12,6 km/h (3 Bft) N-NE 26 1 min 0 min 0,000 mm 2,7 UV-I 708 W/m 13,4 C 15,6 C 19,5 km/h (3 Bft) 96,55 %
21/05/2019 10:53 18,1 C 75 % 1016,9 hPa 0,0 mm 11,9 km/h (2 Bft) N-NE 31 1 min 0 min 0,000 mm 2,7 UV-I 712 W/m 13,6 C 15,9 C 17,7 km/h (3 Bft) 100,00 %
21/05/2019 10:52 18,0 C 74 % 1016,9 hPa 0,0 mm 12,7 km/h (3 Bft) N 360 1 min 0 min 0,000 mm 2,7 UV-I 697 W/m 13,3 C 15,5 C 17,7 km/h (3 Bft) 100,00 %
21/05/2019 10:51 18,1 C 74 % 1016,8 hPa 0,0 mm 10,3 km/h (2 Bft) N 11 1 min 0 min 0,000 mm 2,6 UV-I 690 W/m 13,4 C 16,4 C 15,9 km/h (3 Bft) 100,00 %
21/05/2019 10:50 18,1 C 73 % 1016,9 hPa 0,0 mm 14,3 km/h (3 Bft) N-NO 334 1 min 0 min 0,000 mm 2,1 UV-I 700 W/m 13,2 C 15,1 C 21,2 km/h (4 Bft) 100,00 %
21/05/2019 10:49 18,2 C 74 % 1016,8 hPa 0,0 mm 10,5 km/h (2 Bft) NE 48 1 min 0 min 0,000 mm 2,5 UV-I 700 W/m 13,5 C 16,5 C 21,2 km/h (4 Bft) 95,83 %
21/05/2019 10:48 18,1 C 74 % 1016,9 hPa 0,0 mm 12,5 km/h (2 Bft) N 5 1 min 0 min 0,000 mm 2,7 UV-I 697 W/m 13,4 C 15,7 C 15,9 km/h (3 Bft) 97,92 %
21/05/2019 10:47 18,1 C 74 % 1016,9 hPa 0,0 mm 13,5 km/h (3 Bft) N 5 1 min 0 min 0,000 mm 2,6 UV-I 682 W/m 13,4 C 15,4 C 21,2 km/h (4 Bft) 97,84 %
21/05/2019 10:46 18,2 C 75 % 1016,8 hPa 0,0 mm 10,2 km/h (2 Bft) N 11 1 min 0 min 0,000 mm 2,5 UV-I 678 W/m 13,7 C 16,6 C 17,7 km/h (3 Bft) 100,00 %
21/05/2019 10:45 18,2 C 74 % 1016,8 hPa 0,0 mm 12,9 km/h (3 Bft) NE 42 1 min 0 min 0,000 mm 2,6 UV-I 689 W/m 13,5 C 15,7 C 15,9 km/h (3 Bft) 96,00 %
21/05/2019 10:44 18,2 C 75 % 1016,8 hPa 0,0 mm 14,8 km/h (3 Bft) N-NE 13 1 min 0 min 0,000 mm 2,5 UV-I 675 W/m 13,7 C 15,1 C 21,2 km/h (4 Bft) 100,00 %
21/05/2019 10:43 18,2 C 75 % 1016,9 hPa 0,0 mm 12,8 km/h (3 Bft) N-NE 17 1 min 0 min 0,000 mm 2,5 UV-I 666 W/m 13,7 C 15,7 C 17,7 km/h (3 Bft) 95,83 %
21/05/2019 10:42 18,2 C 75 % 1016,8 hPa 0,0 mm 11,9 km/h (2 Bft) E 90 1 min 0 min 0,000 mm 2,5 UV-I 678 W/m 13,7 C 16,0 C 17,7 km/h (3 Bft) 92,00 %
21/05/2019 10:41 18,2 C 75 % 1016,8 hPa 0,0 mm 14,5 km/h (3 Bft) N-NE 15 1 min 0 min 0,000 mm 2,5 UV-I 686 W/m 13,7 C 15,2 C 19,5 km/h (3 Bft) 91,67 %
21/05/2019 10:40 18,2 C 75 % 1016,8 hPa 0,0 mm 13,8 km/h (3 Bft) N-NE 22 1 min 0 min 0,000 mm 2,5 UV-I 681 W/m 13,7 C 15,4 C 23,0 km/h (4 Bft) 96,00 %
21/05/2019 10:39 18,2 C 76 % 1016,8 hPa 0,0 mm 14,0 km/h (3 Bft) N-NE 19 1 min 0 min 0,000 mm 2,5 UV-I 688 W/m 13,9 C 15,3 C 19,5 km/h (3 Bft) 95,83 %
21/05/2019 10:38 18,2 C 75 % 1016,8 hPa 0,0 mm 12,1 km/h (2 Bft) N-NE 16 1 min 0 min 0,000 mm 2,5 UV-I 691 W/m 13,7 C 15,9 C 21,2 km/h (4 Bft) 96,00 %
21/05/2019 10:37 18,3 C 76 % 1016,8 hPa 0,0 mm 13,5 km/h (3 Bft) N-NE 25 1 min 0 min 0,000 mm 2,4 UV-I 686 W/m 14,0 C 15,6 C 17,7 km/h (3 Bft) 92,00 %
21/05/2019 10:36 18,2 C 78 % 1016,8 hPa 0,0 mm 6,8 km/h (2 Bft) N-NO 348 1 min 0 min 0,000 mm 2,4 UV-I 696 W/m 14,3 C 18,0 C 12,4 km/h (2 Bft) 100,00 %
21/05/2019 10:35 18,2 C 78 % 1016,8 hPa 0,0 mm 5,4 km/h (2 Bft) N 355 1 min 0 min 0,000 mm 2,3 UV-I 716 W/m 14,3 C 18,2 C 10,6 km/h (2 Bft) 100,00 %
21/05/2019 10:34 18,1 C 78 % 1016,8 hPa 0,0 mm 7,2 km/h (2 Bft) N-NE 21 1 min 0 min 0,000 mm 2,3 UV-I 726 W/m 14,2 C 17,7 C 15,9 km/h (3 Bft) 97,62 %
21/05/2019 10:33 18,1 C 79 % 1016,8 hPa 0,0 mm 11,2 km/h (2 Bft) N-NE 18 1 min 0 min 0,000 mm 2,3 UV-I 715 W/m 14,4 C 16,1 C 15,9 km/h (3 Bft) 93,33 %
21/05/2019 10:32 18,0 C 79 % 1016,8 hPa 0,0 mm 10,6 km/h (2 Bft) N-NE 28 1 min 0 min 0,000 mm 2,3 UV-I 682 W/m 14,3 C 16,2 C 15,9 km/h (3 Bft) 100,00 %
21/05/2019 10:31 17,8 C 78 % 1016,8 hPa 0,0 mm 6,1 km/h (2 Bft) N-NO 337 1 min 0 min 0,000 mm 2,2 UV-I 662 W/m 13,9 C 17,8 C 8,9 km/h (2 Bft) 92,59 %
21/05/2019 10:30 17,8 C 79 % 1016,8 hPa 0,0 mm 10,0 km/h (2 Bft) N 360 1 min 0 min 0,000 mm 1,9 UV-I 592 W/m 14,1 C 16,2 C 15,9 km/h (3 Bft) 100,00 %
21/05/2019 10:29 17,8 C 80 % 1016,8 hPa 0,0 mm 9,6 km/h (2 Bft) N 360 1 min 0 min 0,000 mm 1,8 UV-I 701 W/m 14,3 C 16,4 C 15,9 km/h (3 Bft) 96,30 %
21/05/2019 10:28 17,8 C 80 % 1016,8 hPa 0,0 mm 7,1 km/h (2 Bft) N-NE 24 1 min 0 min 0,000 mm 2,2 UV-I 693 W/m 14,3 C 17,5 C 8,9 km/h (2 Bft) 100,00 %
21/05/2019 10:27 17,7 C 79 % 1016,9 hPa 0,0 mm 9,8 km/h (2 Bft) N-NO 327 1 min 0 min 0,000 mm 2,1 UV-I 664 W/m 14,0 C 16,2 C 15,9 km/h (3 Bft) 96,67 %
21/05/2019 10:26 17,6 C 79 % 1016,8 hPa 0,0 mm 8,1 km/h (2 Bft) N-NE 20 1 min 0 min 0,000 mm 2,2 UV-I 658 W/m 13,9 C 16,8 C 14,2 km/h (3 Bft) 92,86 %
21/05/2019 10:25 17,6 C 79 % 1016,8 hPa 0,0 mm 8,4 km/h (2 Bft) N-NE 21 1 min 0 min 0,000 mm 2,2 UV-I 633 W/m 13,9 C 16,7 C 12,4 km/h (2 Bft) 100,00 %
21/05/2019 10:24 17,6 C 79 % 1016,8 hPa 0,0 mm 9,1 km/h (2 Bft) NE 38 1 min 0 min 0,000 mm 2,1 UV-I 611 W/m 13,9 C 16,4 C 15,9 km/h (3 Bft) 92,86 %
21/05/2019 10:23 17,5 C 79 % 1016,8 hPa 0,0 mm 11,1 km/h (2 Bft) N-NE 22 1 min 0 min 0,000 mm 2,1 UV-I 620 W/m 13,8 C 15,5 C 15,9 km/h (3 Bft) 100,00 %
21/05/2019 10:22 17,4 C 79 % 1016,8 hPa 0,0 mm 8,7 km/h (2 Bft) N-NE 16 1 min 0 min 0,000 mm 2,0 UV-I 659 W/m 13,7 C 16,3 C 15,9 km/h (3 Bft) 95,83 %
21/05/2019 10:21 17,4 C 80 % 1016,8 hPa 0,0 mm 10,5 km/h (2 Bft) N-NO 330 1 min 0 min 0,000 mm 2,0 UV-I 616 W/m 13,9 C 15,6 C 15,9 km/h (3 Bft) 100,00 %
21/05/2019 10:20 17,4 C 79 % 1016,8 hPa 0,0 mm 8,4 km/h (2 Bft) NE 37 1 min 0 min 0,000 mm 2,1 UV-I 596 W/m 13,7 C 16,4 C 14,2 km/h (3 Bft) 96,30 %
21/05/2019 10:19 17,3 C 80 % 1016,8 hPa 0,0 mm 11,2 km/h (2 Bft) N 5 1 min 0 min 0,000 mm 2,1 UV-I 615 W/m 13,8 C 15,2 C 15,9 km/h (3 Bft) 100,00 %
21/05/2019 10:18 17,3 C 80 % 1016,8 hPa 0,0 mm 12,0 km/h (2 Bft) N 9 1 min 0 min 0,000 mm 2,0 UV-I 617 W/m 13,8 C 14,9 C 17,7 km/h (3 Bft) 96,30 %
21/05/2019 10:17 17,3 C 80 % 1016,8 hPa 0,0 mm 9,7 km/h (2 Bft) N-NO 342 1 min 0 min 0,000 mm 2,0 UV-I 603 W/m 13,8 C 15,8 C 14,2 km/h (3 Bft) 100,00 %
21/05/2019 10:16 17,3 C 80 % 1016,8 hPa 0,0 mm 6,0 km/h (2 Bft) N 360 1 min 0 min 0,000 mm 2,0 UV-I 592 W/m 13,8 C 17,3 C 8,9 km/h (2 Bft) 96,00 %
21/05/2019 10:15 17,3 C 81 % 1016,8 hPa 0,0 mm 5,9 km/h (2 Bft) NE 44 1 min 0 min 0,000 mm 1,6 UV-I 599 W/m 14,0 C 17,3 C 10,6 km/h (2 Bft) 100,00 %
21/05/2019 10:14 17,3 C 81 % 1016,8 hPa 0,0 mm 4,1 km/h (1 Bft) NO 319 1 min 0 min 0,000 mm 1,8 UV-I 599 W/m 14,0 C 17,3 C 10,6 km/h (2 Bft) 92,86 %
21/05/2019 10:13 17,3 C 80 % 1016,7 hPa 0,0 mm 6,1 km/h (2 Bft) N 350 1 min 0 min 0,000 mm 1,8 UV-I 593 W/m 13,8 C 17,3 C 15,9 km/h (3 Bft) 100,00 %
21/05/2019 10:12 17,3 C 80 % 1016,8 hPa 0,0 mm 6,3 km/h (2 Bft) N 360 1 min 0 min 0,000 mm 1,9 UV-I 592 W/m 13,8 C 17,3 C 8,9 km/h (2 Bft) 93,33 %
21/05/2019 10:11 17,3 C 80 % 1016,7 hPa 0,0 mm 5,7 km/h (2 Bft) N-NO 334 1 min 0 min 0,000 mm 1,8 UV-I 543 W/m 13,8 C 17,3 C 7,1 km/h (2 Bft) 100,00 %
21/05/2019 10:10 17,3 C 82 % 1016,8 hPa 0,0 mm 5,5 km/h (2 Bft) N-NE 26 1 min 0 min 0,000 mm 1,6 UV-I 469 W/m 14,2 C 17,3 C 7,1 km/h (2 Bft) 100,00 %
21/05/2019 10:09 17,3 C 82 % 1016,7 hPa 0,0 mm 4,4 km/h (1 Bft) NO 318 1 min 0 min 0,000 mm 1,7 UV-I 501 W/m 14,2 C 17,3 C 7,1 km/h (2 Bft) 100,00 %
21/05/2019 10:08 17,2 C 82 % 1016,8 hPa 0,0 mm 3,8 km/h (1 Bft) N-NE 19 1 min 0 min 0,000 mm 1,8 UV-I 541 W/m 14,1 C 17,2 C 7,1 km/h (2 Bft) 100,00 %
21/05/2019 10:07 17,2 C 83 % 1016,8 hPa 0,0 mm 3,5 km/h (1 Bft) N-NO 346 1 min 0 min 0,000 mm 1,8 UV-I 547 W/m 14,3 C 17,2 C 7,1 km/h (2 Bft) 96,97 %
21/05/2019 10:06 17,1 C 82 % 1016,8 hPa 0,0 mm 3,3 km/h (1 Bft) NE 39 1 min 0 min 0,000 mm 1,7 UV-I 517 W/m 14,0 C 17,1 C 5,3 km/h (1 Bft) 100,00 %
21/05/2019 10:05 17,0 C 82 % 1016,8 hPa 0,0 mm 4,5 km/h (1 Bft) N-NO 328 1 min 0 min 0,000 mm 1,8 UV-I 564 W/m 13,9 C 17,0 C 7,1 km/h (2 Bft) 93,33 %
21/05/2019 10:04 16,9 C 81 % 1016,8 hPa 0,0 mm 6,3 km/h (2 Bft) N-NE 16 1 min 0 min 0,000 mm 1,7 UV-I 549 W/m 13,6 C 16,9 C 8,9 km/h (2 Bft) 100,00 %
21/05/2019 10:03 16,9 C 82 % 1016,8 hPa 0,0 mm 8,1 km/h (2 Bft) NE 35 1 min 0 min 0,000 mm 1,7 UV-I 525 W/m 13,8 C 16,0 C 10,6 km/h (2 Bft) 100,00 %
21/05/2019 10:02 16,9 C 82 % 1016,8 hPa 0,0 mm 6,0 km/h (2 Bft) N-NE 17 1 min 0 min 0,000 mm 1,7 UV-I 533 W/m 13,8 C 16,9 C 12,4 km/h (2 Bft) 100,00 %
21/05/2019 10:01 16,9 C 82 % 1016,8 hPa 0,0 mm 6,0 km/h (2 Bft) N 5 1 min 0 min 0,178 mm 1,7 UV-I 532 W/m 13,8 C 16,9 C 8,9 km/h (2 Bft) 100,00 %
21/05/2019 10:00 16,9 C 82 % 1016,8 hPa 0,0 mm 3,9 km/h (1 Bft) N-NE 19 1 min 0 min 0,000 mm 1,7 UV-I 515 W/m 13,8 C 16,9 C 7,1 km/h (2 Bft) 100,00 %
21/05/2019 09:59 16,9 C 82 % 1016,8 hPa 0,0 mm 3,5 km/h (1 Bft) NO 316 1 min 0 min 0,000 mm 1,7 UV-I 528 W/m 13,8 C 16,9 C 7,1 km/h (2 Bft) 100,00 %
21/05/2019 09:58 16,8 C 83 % 1016,8 hPa 0,0 mm 4,2 km/h (1 Bft) NE 37 1 min 0 min 0,000 mm 1,6 UV-I 525 W/m 13,9 C 16,8 C 7,1 km/h (2 Bft) 95,83 %
21/05/2019 09:57 16,8 C 83 % 1016,8 hPa 0,0 mm 5,3 km/h (1 Bft) N-NE 27 1 min 0 min 0,000 mm 1,6 UV-I 517 W/m 13,9 C 16,8 C 14,2 km/h (3 Bft) 100,00 %
21/05/2019 09:56 16,7 C 83 % 1016,8 hPa 0,0 mm 3,4 km/h (1 Bft) NE 49 1 min 0 min 0,000 mm 1,6 UV-I 512 W/m 13,8 C 16,7 C 7,1 km/h (2 Bft) 100,00 %
21/05/2019 09:55 16,6 C 83 % 1016,7 hPa 0,0 mm 2,4 km/h (1 Bft) E-NE 60 1 min 0 min 0,000 mm 1,6 UV-I 514 W/m 13,7 C 16,6 C 3,5 km/h (1 Bft) 100,00 %
21/05/2019 09:54 16,6 C 82 % 1016,7 hPa 0,0 mm 4,2 km/h (1 Bft) N-NE 21 1 min 0 min 0,000 mm 1,6 UV-I 515 W/m 13,5 C 16,6 C 7,1 km/h (2 Bft) 91,67 %
21/05/2019 09:53 16,6 C 82 % 1016,7 hPa 0,0 mm 7,6 km/h (2 Bft) O-NO 291 1 min 0 min 0,000 mm 1,6 UV-I 512 W/m 13,5 C 16,0 C 14,2 km/h (3 Bft) 100,00 %
21/05/2019 09:52 16,6 C 83 % 1016,7 hPa 0,0 mm 4,2 km/h (1 Bft) N 10 1 min 0 min 0,000 mm 1,6 UV-I 503 W/m 13,7 C 16,6 C 8,9 km/h (2 Bft) 100,00 %
21/05/2019 09:51 16,5 C 82 % 1016,7 hPa 0,0 mm 5,9 km/h (2 Bft) N 355 1 min 0 min 0,000 mm 1,5 UV-I 503 W/m 13,4 C 16,5 C 8,9 km/h (2 Bft) 91,67 %
21/05/2019 09:50 16,4 C 82 % 1016,7 hPa 0,0 mm 3,6 km/h (1 Bft) NO 321 2 min 0 min 0,000 mm 1,5 UV-I 496 W/m 13,3 C 16,4 C 10,6 km/h (2 Bft) 97,83 %
21/05/2019 09:48 16,5 C 83 % 1016,7 hPa 0,0 mm 3,0 km/h (1 Bft) N-NO 339 1 min 0 min 0,000 mm 1,5 UV-I 490 W/m 13,6 C 16,5 C 5,3 km/h (1 Bft) 96,77 %
21/05/2019 09:47 16,4 C 82 % 1016,7 hPa 0,0 mm 4,8 km/h (1 Bft) N-NE 21 1 min 0 min 0,000 mm 1,5 UV-I 489 W/m 13,3 C 16,4 C 8,9 km/h (2 Bft) 93,33 %
21/05/2019 09:46 16,4 C 82 % 1016,7 hPa 0,0 mm 5,5 km/h (2 Bft) N-NO 348 1 min 0 min 0,000 mm 1,5 UV-I 489 W/m 13,3 C 16,4 C 8,9 km/h (2 Bft) 96,67 %
21/05/2019 09:45 16,4 C 83 % 1016,7 hPa 0,0 mm 7,6 km/h (2 Bft) N 355 1 min 0 min 0,000 mm 1,4 UV-I 481 W/m 13,5 C 15,8 C 15,9 km/h (3 Bft) 100,00 %
21/05/2019 09:44 16,4 C 83 % 1016,6 hPa 0,0 mm 5,7 km/h (2 Bft) N 9 1 min 0 min 0,000 mm 1,4 UV-I 478 W/m 13,5 C 16,4 C 7,1 km/h (2 Bft) 100,00 %
21/05/2019 09:43 16,4 C 84 % 1016,6 hPa 0,0 mm 4,6 km/h (1 Bft) N 5 2 min 0 min 0,000 mm 1,4 UV-I 477 W/m 13,7 C 16,4 C 8,9 km/h (2 Bft) 100,00 %
21/05/2019 09:41 16,2 C 84 % 1016,6 hPa 0,0 mm 4,0 km/h (1 Bft) N-NO 346 1 min 0 min 0,000 mm 1,4 UV-I 477 W/m 13,5 C 16,2 C 7,1 km/h (2 Bft) 91,67 %
21/05/2019 09:40 16,2 C 84 % 1016,6 hPa 0,0 mm 4,0 km/h (1 Bft) NO 313 1 min 0 min 0,000 mm 1,3 UV-I 470 W/m 13,5 C 16,2 C 8,9 km/h (2 Bft) 100,00 %
21/05/2019 09:39 16,2 C 84 % 1016,6 hPa 0,0 mm 4,8 km/h (1 Bft) NO 311 1 min 0 min 0,000 mm 1,3 UV-I 469 W/m 13,5 C 16,2 C 7,1 km/h (2 Bft) 100,00 %
21/05/2019 09:38 16,1 C 84 % 1016,6 hPa 0,0 mm 3,4 km/h (1 Bft) N-NO 346 1 min 0 min 0,000 mm 1,3 UV-I 467 W/m 13,4 C 16,1 C 7,1 km/h (2 Bft) 100,00 %
21/05/2019 09:37 16,1 C 83 % 1016,6 hPa 0,0 mm 5,1 km/h (1 Bft) N-NE 24 1 min 0 min 0,000 mm 1,3 UV-I 458 W/m 13,2 C 16,1 C 8,9 km/h (2 Bft) 95,65 %
21/05/2019 09:36 16,1 C 83 % 1016,6 hPa 0,0 mm 5,2 km/h (1 Bft) N 11 1 min 0 min 0,000 mm 1,3 UV-I 356 W/m 13,2 C 16,1 C 10,6 km/h (2 Bft) 100,00 %
21/05/2019 09:35 16,2 C 83 % 1016,6 hPa 0,0 mm 4,5 km/h (1 Bft) NO 306 0 min 0 min 0,000 mm 1,3 UV-I 278 W/m 13,3 C 16,2 C 8,9 km/h (2 Bft) 100,00 %
21/05/2019 09:34 16,2 C 84 % 1016,5 hPa 0,0 mm 5,0 km/h (1 Bft) N-NO 338 0 min 0 min 0,000 mm 1,3 UV-I 238 W/m 13,5 C 16,2 C 10,6 km/h (2 Bft) 100,00 %
21/05/2019 09:33 16,2 C 85 % 1016,6 hPa 0,0 mm 5,6 km/h (2 Bft) N 355 0 min 0 min 0,000 mm 1,2 UV-I 195 W/m 13,7 C 16,2 C 10,6 km/h (2 Bft) 100,00 %
21/05/2019 09:32 16,1 C 85 % 1016,6 hPa 0,0 mm 4,5 km/h (1 Bft) N-NE 32 0 min 0 min 0,000 mm 1,2 UV-I 225 W/m 13,6 C 16,1 C 7,1 km/h (2 Bft) 100,00 %
21/05/2019 09:31 16,0 C 85 % 1016,5 hPa 0,0 mm 3,1 km/h (1 Bft) NO 305 0 min 0 min 0,000 mm 1,2 UV-I 236 W/m 13,5 C 16,0 C 5,3 km/h (1 Bft) 100,00 %
21/05/2019 09:30 15,9 C 85 % 1016,5 hPa 0,0 mm 2,7 km/h (1 Bft) N-NO 343 0 min 0 min 0,000 mm 1,2 UV-I 223 W/m 13,4 C 15,9 C 3,5 km/h (1 Bft) 100,00 %
21/05/2019 09:29 15,9 C 87 % 1016,6 hPa 0,0 mm 3,8 km/h (1 Bft) NO 326 0 min 0 min 0,000 mm 1,2 UV-I 174 W/m 13,7 C 15,9 C 7,1 km/h (2 Bft) 100,00 %
21/05/2019 09:28 15,8 C 87 % 1016,5 hPa 0,0 mm 3,1 km/h (1 Bft) NO 309 0 min 0 min 0,000 mm 1,2 UV-I 156 W/m 13,6 C 15,8 C 5,3 km/h (1 Bft) 100,00 %
21/05/2019 09:27 15,7 C 85 % 1016,5 hPa 0,0 mm 0,9 km/h (0 Bft) N-NO 329 0 min 0 min 0,000 mm 1,1 UV-I 164 W/m 13,2 C 15,7 C 3,5 km/h (1 Bft) 100,00 %
21/05/2019 09:26 15,7 C 87 % 1016,5 hPa 0,0 mm 4,6 km/h (1 Bft) N-NO 338 0 min 0 min 0,000 mm 1,1 UV-I 141 W/m 13,5 C 15,7 C 8,9 km/h (2 Bft) 100,00 %
21/05/2019 09:25 15,6 C 88 % 1016,5 hPa 0,0 mm 5,5 km/h (2 Bft) NO 325 0 min 0 min 0,000 mm 1,0 UV-I 131 W/m 13,6 C 15,6 C 10,6 km/h (2 Bft) 95,83 %
21/05/2019 09:24 15,4 C 88 % 1016,5 hPa 0,0 mm 5,0 km/h (1 Bft) NE 45 0 min 0 min 0,000 mm 0,9 UV-I 152 W/m 13,4 C 15,4 C 8,9 km/h (2 Bft) 100,00 %
21/05/2019 09:23 15,3 C 89 % 1016,5 hPa 0,0 mm 4,5 km/h (1 Bft) N-NE 15 0 min 0 min 0,000 mm 0,9 UV-I 164 W/m 13,5 C 15,3 C 7,1 km/h (2 Bft) 95,24 %
21/05/2019 09:22 15,2 C 90 % 1016,4 hPa 0,0 mm 2,8 km/h (1 Bft) N-NO 344 0 min 0 min 0,000 mm 0,9 UV-I 126 W/m 13,6 C 15,2 C 5,3 km/h (1 Bft) 100,00 %
21/05/2019 09:21 14,9 C 89 % 1016,4 hPa 0,0 mm 2,8 km/h (1 Bft) N 355 0 min 0 min 0,000 mm 0,9 UV-I 119 W/m 13,1 C 14,9 C 3,5 km/h (1 Bft) 91,67 %
21/05/2019 09:20 14,8 C 89 % 1016,4 hPa 0,0 mm 3,1 km/h (1 Bft) N-NO 331 0 min 0 min 0,000 mm 0,8 UV-I 118 W/m 13,0 C 14,8 C 5,3 km/h (1 Bft) 100,00 %
21/05/2019 09:19 14,7 C 90 % 1016,5 hPa 0,0 mm 2,5 km/h (1 Bft) N 360 0 min 0 min 0,000 mm 0,8 UV-I 118 W/m 13,1 C 14,7 C 3,5 km/h (1 Bft) 96,43 %
21/05/2019 09:18 14,6 C 91 % 1016,5 hPa 0,0 mm 2,1 km/h (1 Bft) N-NO 346 0 min 0 min 0,000 mm 0,9 UV-I 115 W/m 13,1 C 14,6 C 3,5 km/h (1 Bft) 100,00 %
21/05/2019 09:17 14,4 C 91 % 1016,4 hPa 0,0 mm 1,7 km/h (1 Bft) N-NO 336 0 min 0 min 0,000 mm 0,8 UV-I 113 W/m 12,9 C 14,4 C 5,3 km/h (1 Bft) 100,00 %
21/05/2019 09:16 14,2 C 91 % 1016,4 hPa 0,0 mm 0,8 km/h (0 Bft) O-NO 300 0 min 0 min 0,000 mm 0,8 UV-I 116 W/m 12,8 C 14,2 C 3,5 km/h (1 Bft) 100,00 %
21/05/2019 09:15 14,1 C 90 % 1016,4 hPa 0,0 mm 0,0 km/h (0 Bft) SO 232 0 min 0 min 0,000 mm 0,8 UV-I 113 W/m 12,5 C 14,1 C 0,0 km/h (0 Bft) 100,00 %
21/05/2019 09:14 13,9 C 91 % 1016,4 hPa 0,0 mm 0,0 km/h (0 Bft) SO 232 0 min 0 min 0,000 mm 0,8 UV-I 113 W/m 12,5 C 13,9 C 0,0 km/h (0 Bft) 96,00 %
21/05/2019 09:13 13,8 C 91 % 1016,4 hPa 0,0 mm 0,1 km/h (0 Bft) SO 232 0 min 0 min 0,000 mm 0,8 UV-I 140 W/m 12,4 C 13,8 C 1,8 km/h (1 Bft) 100,00 %
21/05/2019 09:12 13,8 C 91 % 1016,4 hPa 0,0 mm 0,1 km/h (0 Bft) SO 232 0 min 0 min 0,000 mm 0,7 UV-I 178 W/m 12,4 C 13,8 C 1,8 km/h (1 Bft) 100,00 %
21/05/2019 09:11 13,7 C 91 % 1016,4 hPa 0,0 mm 1,3 km/h (1 Bft) SO 232 0 min 0 min 0,000 mm 0,8 UV-I 192 W/m 12,3 C 13,7 C 3,5 km/h (1 Bft) 100,00 %
21/05/2019 09:10 13,6 C 91 % 1016,4 hPa 0,0 mm 1,0 km/h (0 Bft) SO 232 0 min 0 min 0,000 mm 0,7 UV-I 189 W/m 12,2 C 13,6 C 3,5 km/h (1 Bft) 100,00 %
21/05/2019 09:09 13,6 C 91 % 1016,4 hPa 0,0 mm 2,0 km/h (1 Bft) SO 232 0 min 0 min 0,000 mm 0,7 UV-I 206 W/m 12,2 C 13,6 C 3,5 km/h (1 Bft) 100,00 %
21/05/2019 09:08 13,4 C 92 % 1016,4 hPa 0,0 mm 1,4 km/h (1 Bft) SO 232 0 min 0 min 0,000 mm 0,7 UV-I 184 W/m 12,1 C 13,4 C 3,5 km/h (1 Bft) 92,86 %
21/05/2019 09:07 13,3 C 91 % 1016,3 hPa 0,0 mm 2,8 km/h (1 Bft) SO 232 0 min 0 min 0,000 mm 0,7 UV-I 132 W/m 11,9 C 13,3 C 3,5 km/h (1 Bft) 100,00 %
21/05/2019 09:06 13,2 C 91 % 1016,4 hPa 0,0 mm 3,7 km/h (1 Bft) SO 232 0 min 0 min 0,000 mm 0,7 UV-I 104 W/m 11,8 C 13,2 C 5,3 km/h (1 Bft) 100,00 %
21/05/2019 09:05 13,2 C 91 % 1016,3 hPa 0,0 mm 2,4 km/h (1 Bft) O-SO 238 0 min 0 min 0,000 mm 0,7 UV-I 104 W/m 11,8 C 13,2 C 3,5 km/h (1 Bft) 95,65 %
21/05/2019 09:04 13,2 C 91 % 1016,4 hPa 0,0 mm 2,4 km/h (1 Bft) O-SO 238 0 min 0 min 0,000 mm 0,7 UV-I 102 W/m 11,8 C 13,2 C 3,5 km/h (1 Bft) 100,00 %
21/05/2019 09:03 13,2 C 91 % 1016,4 hPa 0,0 mm 4,0 km/h (1 Bft) O-SO 237 0 min 0 min 0,000 mm 0,7 UV-I 105 W/m 11,8 C 13,2 C 7,1 km/h (2 Bft) 100,00 %
21/05/2019 09:02 13,2 C 91 % 1016,4 hPa 0,0 mm 1,7 km/h (1 Bft) O 275 0 min 0 min 0,000 mm 0,6 UV-I 118 W/m 11,8 C 13,2 C 3,5 km/h (1 Bft) 100,00 %
21/05/2019 09:01 13,2 C 91 % 1016,4 hPa 0,0 mm 3,8 km/h (1 Bft) O 275 0 min 0 min 0,051 mm 0,6 UV-I 127 W/m 11,8 C 13,2 C 5,3 km/h (1 Bft) 96,67 %
21/05/2019 09:00 13,1 C 91 % 1016,4 hPa 0,0 mm 2,0 km/h (1 Bft) O-SO 250 0 min 0 min 0,000 mm 0,6 UV-I 123 W/m 11,7 C 13,1 C 3,5 km/h (1 Bft) 100,00 %
21/05/2019 08:59 13,1 C 91 % 1016,4 hPa 0,0 mm 4,2 km/h (1 Bft) O-SO 249 0 min 0 min 0,000 mm 0,6 UV-I 115 W/m 11,7 C 13,1 C 5,3 km/h (1 Bft) 100,00 %
21/05/2019 08:58 13,1 C 91 % 1016,4 hPa 0,0 mm 4,0 km/h (1 Bft) O-SO 252 0 min 0 min 0,000 mm 0,6 UV-I 126 W/m 11,7 C 13,1 C 5,3 km/h (1 Bft) 100,00 %
21/05/2019 08:57 13,1 C 91 % 1016,4 hPa 0,0 mm 4,7 km/h (1 Bft) O-SO 246 0 min 0 min 0,000 mm 0,6 UV-I 135 W/m 11,7 C 13,1 C 7,1 km/h (2 Bft) 100,00 %
21/05/2019 08:56 13,1 C 92 % 1016,3 hPa 0,0 mm 2,9 km/h (1 Bft) O-SO 252 0 min 0 min 0,000 mm 0,6 UV-I 133 W/m 11,8 C 13,1 C 3,5 km/h (1 Bft) 100,00 %
21/05/2019 08:55 13,0 C 92 % 1016,4 hPa 0,0 mm 2,7 km/h (1 Bft) O 260 0 min 0 min 0,000 mm 0,6 UV-I 144 W/m 11,7 C 13,0 C 5,3 km/h (1 Bft) 100,00 %
21/05/2019 08:54 12,9 C 92 % 1016,4 hPa 0,0 mm 1,9 km/h (1 Bft) O 272 0 min 0 min 0,000 mm 0,6 UV-I 169 W/m 11,6 C 12,9 C 5,3 km/h (1 Bft) 95,65 %
21/05/2019 08:53 12,9 C 92 % 1016,3 hPa 0,0 mm 5,0 km/h (1 Bft) O 275 1 min 0 min 0,000 mm 0,6 UV-I 281 W/m 11,6 C 12,9 C 7,1 km/h (2 Bft) 100,00 %
21/05/2019 08:52 12,8 C 92 % 1016,4 hPa 0,0 mm 2,4 km/h (1 Bft) N-NO 328 1 min 0 min 0,000 mm 0,6 UV-I 281 W/m 11,5 C 12,8 C 5,3 km/h (1 Bft) 95,83 %
21/05/2019 08:51 12,8 C 93 % 1016,4 hPa 0,0 mm 6,7 km/h (2 Bft) O-NO 286 1 min 0 min 0,000 mm 0,6 UV-I 274 W/m 11,7 C 12,6 C 10,6 km/h (2 Bft) 91,67 %
21/05/2019 08:50 12,7 C 93 % 1016,4 hPa 0,0 mm 2,7 km/h (1 Bft) O-NO 292 1 min 0 min 0,000 mm 0,6 UV-I 243 W/m 11,6 C 12,7 C 5,3 km/h (1 Bft) 100,00 %
21/05/2019 08:49 12,6 C 93 % 1016,4 hPa 0,0 mm 1,3 km/h (1 Bft) O 269 0 min 0 min 0,000 mm 0,5 UV-I 187 W/m 11,5 C 12,6 C 5,3 km/h (1 Bft) 93,33 %
21/05/2019 08:48 12,6 C 93 % 1016,3 hPa 0,0 mm 5,1 km/h (1 Bft) O 275 0 min 0 min 0,000 mm 0,6 UV-I 162 W/m 11,5 C 12,6 C 10,6 km/h (2 Bft) 89,29 %
21/05/2019 08:47 12,4 C 93 % 1016,3 hPa 0,0 mm 2,5 km/h (1 Bft) O-NO 294 0 min 0 min 0,000 mm 0,5 UV-I 169 W/m 11,3 C 12,4 C 5,3 km/h (1 Bft) 100,00 %
21/05/2019 08:46 12,4 C 93 % 1016,3 hPa 0,0 mm 2,0 km/h (1 Bft) O-NO 288 0 min 0 min 0,000 mm 0,5 UV-I 121 W/m 11,3 C 12,4 C 3,5 km/h (1 Bft) 100,00 %
21/05/2019 08:45 12,3 C 92 % 1016,3 hPa 0,0 mm 3,5 km/h (1 Bft) O-NO 285 0 min 0 min 0,000 mm 0,5 UV-I 94 W/m 11,0 C 12,3 C 5,3 km/h (1 Bft) 100,00 %
21/05/2019 08:44 12,3 C 93 % 1016,3 hPa 0,0 mm 3,4 km/h (1 Bft) O-NO 293 0 min 0 min 0,000 mm 0,5 UV-I 111 W/m 11,2 C 12,3 C 7,1 km/h (2 Bft) 100,00 %
21/05/2019 08:43 12,2 C 93 % 1016,3 hPa 0,0 mm 2,6 km/h (1 Bft) NO 306 0 min 0 min 0,000 mm 0,5 UV-I 150 W/m 11,1 C 12,2 C 7,1 km/h (2 Bft) 96,00 %
21/05/2019 08:42 12,2 C 93 % 1016,3 hPa 0,0 mm 2,0 km/h (1 Bft) O 278 0 min 0 min 0,000 mm 0,5 UV-I 172 W/m 11,1 C 12,2 C 5,3 km/h (1 Bft) 96,30 %
21/05/2019 08:41 12,2 C 93 % 1016,3 hPa 0,0 mm 3,5 km/h (1 Bft) O-NO 292 0 min 0 min 0,000 mm 0,5 UV-I 135 W/m 11,1 C 12,2 C 5,3 km/h (1 Bft) 100,00 %
21/05/2019 08:40 12,1 C 93 % 1016,3 hPa 0,0 mm 2,7 km/h (1 Bft) NO 307 0 min 0 min 0,000 mm 0,5 UV-I 135 W/m 11,0 C 12,1 C 7,1 km/h (2 Bft) 100,00 %
21/05/2019 08:39 12,1 C 93 % 1016,3 hPa 0,0 mm 2,5 km/h (1 Bft) O-SO 248 0 min 0 min 0,000 mm 0,5 UV-I 137 W/m 11,0 C 12,1 C 5,3 km/h (1 Bft) 100,00 %
21/05/2019 08:38 12,0 C 93 % 1016,3 hPa 0,0 mm 3,9 km/h (1 Bft) O 279 0 min 0 min 0,000 mm 0,5 UV-I 127 W/m 10,9 C 12,0 C 7,1 km/h (2 Bft) 100,00 %
21/05/2019 08:37 12,0 C 93 % 1016,3 hPa 0,0 mm 3,4 km/h (1 Bft) O-SO 244 0 min 0 min 0,000 mm 0,5 UV-I 122 W/m 10,9 C 12,0 C 5,3 km/h (1 Bft) 95,83 %
21/05/2019 08:36 11,9 C 93 % 1016,2 hPa 0,0 mm 2,1 km/h (1 Bft) O-SO 250 0 min 0 min 0,000 mm 0,5 UV-I 106 W/m 10,8 C 11,9 C 5,3 km/h (1 Bft) 100,00 %
21/05/2019 08:35 11,8 C 93 % 1016,3 hPa 0,0 mm 4,1 km/h (1 Bft) O 271 0 min 0 min 0,000 mm 0,5 UV-I 90 W/m 10,7 C 11,8 C 10,6 km/h (2 Bft) 100,00 %
21/05/2019 08:34 11,8 C 93 % 1016,2 hPa 0,0 mm 0,8 km/h (0 Bft) NO 311 0 min 0 min 0,000 mm 0,5 UV-I 83 W/m 10,7 C 11,8 C 3,5 km/h (1 Bft) 96,43 %
21/05/2019 08:33 11,7 C 94 % 1016,2 hPa 0,0 mm 4,7 km/h (1 Bft) NO 304 0 min 0 min 0,000 mm 0,5 UV-I 84 W/m 10,8 C 11,7 C 7,1 km/h (2 Bft) 100,00 %
21/05/2019 08:32 11,7 C 94 % 1016,2 hPa 0,0 mm 3,8 km/h (1 Bft) NO 304 0 min 0 min 0,000 mm 0,3 UV-I 81 W/m 10,8 C 11,7 C 8,9 km/h (2 Bft) 100,00 %
21/05/2019 08:31 11,6 C 94 % 1016,2 hPa 0,0 mm 3,2 km/h (1 Bft) O 269 0 min 0 min 0,000 mm 0,0 UV-I 82 W/m 10,7 C 11,6 C 5,3 km/h (1 Bft) 100,00 %
21/05/2019 08:30 11,6 C 94 % 1016,2 hPa 0,0 mm 3,0 km/h (1 Bft) O-NO 292 0 min 0 min 0,000 mm 0,0 UV-I 79 W/m 10,7 C 11,6 C 5,3 km/h (1 Bft) 100,00 %
21/05/2019 08:29 11,4 C 94 % 1016,2 hPa 0,0 mm 1,3 km/h (1 Bft) SO 223 0 min 0 min 0,000 mm 0,0 UV-I 79 W/m 10,5 C 11,4 C 3,5 km/h (1 Bft) 100,00 %
21/05/2019 08:28 11,4 C 94 % 1016,2 hPa 0,0 mm 2,2 km/h (1 Bft) SO 223 0 min 0 min 0,000 mm 0,0 UV-I 79 W/m 10,5 C 11,4 C 5,3 km/h (1 Bft) 95,83 %
21/05/2019 08:27 11,4 C 94 % 1016,2 hPa 0,0 mm 4,5 km/h (1 Bft) SO 223 0 min 0 min 0,000 mm 0,0 UV-I 79 W/m 10,5 C 11,4 C 7,1 km/h (2 Bft) 100,00 %
21/05/2019 08:26 11,3 C 94 % 1016,2 hPa 0,0 mm 5,5 km/h (2 Bft) O-SO 247 0 min 0 min 0,000 mm 0,0 UV-I 83 W/m 10,4 C 11,3 C 8,9 km/h (2 Bft) 96,43 %
21/05/2019 08:25 11,3 C 94 % 1016,2 hPa 0,0 mm 5,4 km/h (2 Bft) O 262 0 min 0 min 0,000 mm 0,0 UV-I 83 W/m 10,4 C 11,3 C 7,1 km/h (2 Bft) 100,00 %
21/05/2019 08:24 11,2 C 94 % 1016,2 hPa 0,0 mm 5,7 km/h (2 Bft) O-SO 257 0 min 0 min 0,000 mm 0,0 UV-I 79 W/m 10,3 C 11,2 C 8,9 km/h (2 Bft) 93,18 %
21/05/2019 08:23 11,2 C 94 % 1016,2 hPa 0,0 mm 7,8 km/h (2 Bft) O 277 0 min 0 min 0,000 mm 0,0 UV-I 82 W/m 10,3 C 10,2 C 12,4 km/h (2 Bft) 97,78 %
21/05/2019 08:22 11,1 C 94 % 1016,2 hPa 0,0 mm 2,7 km/h (1 Bft) SO 228 0 min 0 min 0,000 mm 0,0 UV-I 80 W/m 10,2 C 11,1 C 5,3 km/h (1 Bft) 94,12 %
21/05/2019 08:21 11,0 C 94 % 1016,1 hPa 0,0 mm 3,5 km/h (1 Bft) O-NO 288 0 min 0 min 0,000 mm 0,0 UV-I 81 W/m 10,1 C 11,0 C 5,3 km/h (1 Bft) 100,00 %
21/05/2019 08:20 11,0 C 94 % 1016,1 hPa 0,0 mm 4,2 km/h (1 Bft) O 270 0 min 0 min 0,000 mm 0,0 UV-I 77 W/m 10,1 C 11,0 C 7,1 km/h (2 Bft) 93,33 %
21/05/2019 08:19 10,9 C 94 % 1016,1 hPa 0,0 mm 2,3 km/h (1 Bft) O 275 0 min 0 min 0,000 mm 0,0 UV-I 78 W/m 10,0 C 10,9 C 3,5 km/h (1 Bft) 100,00 %
21/05/2019 08:18 10,9 C 94 % 1016,1 hPa 0,0 mm 2,1 km/h (1 Bft) O 266 0 min 0 min 0,000 mm 0,0 UV-I 78 W/m 10,0 C 10,9 C 5,3 km/h (1 Bft) 91,67 %
21/05/2019 08:17 10,8 C 95 % 1016,1 hPa 0,0 mm 2,4 km/h (1 Bft) NO 311 0 min 0 min 0,000 mm 0,0 UV-I 75 W/m 10,0 C 10,8 C 5,3 km/h (1 Bft) 96,43 %
21/05/2019 08:16 10,7 C 95 % 1016,1 hPa 0,0 mm 0,7 km/h (0 Bft) NO 315 0 min 0 min 0,000 mm 0,0 UV-I 74 W/m 9,9 C 10,7 C 1,8 km/h (1 Bft) 100,00 %
21/05/2019 08:15 10,7 C 95 % 1016,0 hPa 0,0 mm 3,3 km/h (1 Bft) NO 315 0 min 0 min 0,000 mm 0,0 UV-I 74 W/m 9,9 C 10,7 C 5,3 km/h (1 Bft) 95,83 %
21/05/2019 08:14 10,6 C 95 % 1016,1 hPa 0,0 mm 1,8 km/h (1 Bft) O-NO 291 0 min 0 min 0,000 mm 0,0 UV-I 74 W/m 9,8 C 10,6 C 3,5 km/h (1 Bft) 100,00 %
21/05/2019 08:13 10,6 C 95 % 1016,0 hPa 0,0 mm 4,0 km/h (1 Bft) O-NO 288 0 min 0 min 0,000 mm 0,0 UV-I 74 W/m 9,8 C 10,6 C 5,3 km/h (1 Bft) 92,86 %
21/05/2019 08:12 10,6 C 94 % 1016,0 hPa 0,0 mm 3,2 km/h (1 Bft) NO 304 0 min 0 min 0,000 mm 0,0 UV-I 76 W/m 9,7 C 10,6 C 5,3 km/h (1 Bft) 100,00 %
21/05/2019 08:11 10,5 C 95 % 1016,0 hPa 0,0 mm 4,0 km/h (1 Bft) O-SO 250 0 min 0 min 0,000 mm 0,0 UV-I 76 W/m 9,7 C 10,5 C 5,3 km/h (1 Bft) 96,30 %
21/05/2019 08:10 10,5 C 95 % 1016,0 hPa 0,0 mm 4,2 km/h (1 Bft) O-SO 258 0 min 0 min 0,000 mm 0,0 UV-I 73 W/m 9,7 C 10,5 C 7,1 km/h (2 Bft) 100,00 %
21/05/2019 08:09 10,5 C 95 % 1016,1 hPa 0,0 mm 5,8 km/h (2 Bft) O-NO 285 0 min 0 min 0,000 mm 0,0 UV-I 70 W/m 9,7 C 10,5 C 7,1 km/h (2 Bft) 95,65 %
21/05/2019 08:08 10,5 C 95 % 1016,0 hPa 0,0 mm 3,8 km/h (1 Bft) O-NO 290 0 min 0 min 0,000 mm 0,0 UV-I 69 W/m 9,7 C 10,5 C 5,3 km/h (1 Bft) 100,00 %
21/05/2019 08:07 10,4 C 95 % 1016,0 hPa 0,0 mm 4,3 km/h (1 Bft) O 276 0 min 0 min 0,000 mm 0,0 UV-I 69 W/m 9,6 C 10,4 C 7,1 km/h (2 Bft) 95,83 %
21/05/2019 08:06 10,4 C 95 % 1015,9 hPa 0,0 mm 3,8 km/h (1 Bft) O 267 0 min 0 min 0,000 mm 0,0 UV-I 68 W/m 9,6 C 10,4 C 5,3 km/h (1 Bft) 95,83 %
21/05/2019 08:05 10,4 C 95 % 1016,0 hPa 0,0 mm 3,5 km/h (1 Bft) O 259 0 min 0 min 0,000 mm 0,0 UV-I 67 W/m 9,6 C 10,4 C 5,3 km/h (1 Bft) 100,00 %
21/05/2019 08:04 10,3 C 95 % 1015,9 hPa 0,0 mm 1,8 km/h (1 Bft) O-SO 244 0 min 0 min 0,000 mm 0,0 UV-I 67 W/m 9,5 C 10,3 C 3,5 km/h (1 Bft) 95,83 %
21/05/2019 08:03 10,3 C 95 % 1015,9 hPa 0,0 mm 3,2 km/h (1 Bft) O-NO 284 0 min 0 min 0,000 mm 0,0 UV-I 67 W/m 9,5 C 10,3 C 7,1 km/h (2 Bft) 96,67 %
21/05/2019 08:02 10,3 C 95 % 1016,0 hPa 0,0 mm 3,5 km/h (1 Bft) O 279 0 min 0 min 0,000 mm 0,0 UV-I 66 W/m 9,5 C 10,3 C 5,3 km/h (1 Bft) 100,00 %
21/05/2019 08:01 10,2 C 95 % 1016,0 hPa 0,0 mm 2,2 km/h (1 Bft) O 276 0 min 0 min 0,025 mm 0,0 UV-I 65 W/m 9,4 C 10,2 C 3,5 km/h (1 Bft) 96,67 %
21/05/2019 08:00 10,2 C 96 % 1016,0 hPa 0,0 mm 2,6 km/h (1 Bft) O 273 0 min 0 min 0,000 mm 0,0 UV-I 64 W/m 9,6 C 10,2 C 5,3 km/h (1 Bft) 100,00 %
21/05/2019 07:59 10,1 C 95 % 1016,0 hPa 0,0 mm 3,8 km/h (1 Bft) O-NO 282 0 min 0 min 0,000 mm 0,0 UV-I 66 W/m 9,3 C 10,1 C 7,1 km/h (2 Bft) 100,00 %
21/05/2019 07:58 10,1 C 95 % 1015,9 hPa 0,0 mm 2,0 km/h (1 Bft) O-NO 293 0 min 0 min 0,000 mm 0,0 UV-I 67 W/m 9,3 C 10,1 C 3,5 km/h (1 Bft) 96,43 %
21/05/2019 07:57 10,0 C 96 % 1015,9 hPa 0,0 mm 3,5 km/h (1 Bft) O-NO 292 0 min 0 min 0,000 mm 0,0 UV-I 65 W/m 9,4 C 10,0 C 5,3 km/h (1 Bft) 96,55 %
21/05/2019 07:56 9,9 C 96 % 1015,9 hPa 0,0 mm 1,7 km/h (1 Bft) O-NO 288 0 min 0 min 0,000 mm 0,0 UV-I 67 W/m 9,3 C 9,9 C 7,1 km/h (2 Bft) 100,00 %
21/05/2019 07:55 9,9 C 96 % 1015,9 hPa 0,0 mm 1,4 km/h (1 Bft) O-SO 248 0 min 0 min 0,000 mm 0,0 UV-I 84 W/m 9,3 C 9,9 C 3,5 km/h (1 Bft) 83,33 %
21/05/2019 07:54 9,9 C 96 % 1015,9 hPa 0,0 mm 2,0 km/h (1 Bft) O-SO 255 0 min 0 min 0,000 mm 0,0 UV-I 92 W/m 9,3 C 9,9 C 3,5 km/h (1 Bft) 97,62 %
21/05/2019 07:53 9,8 C 96 % 1015,9 hPa 0,0 mm 3,3 km/h (1 Bft) NO 309 0 min 0 min 0,000 mm 0,0 UV-I 78 W/m 9,2 C 9,8 C 5,3 km/h (1 Bft) 100,00 %
21/05/2019 07:52 9,8 C 96 % 1015,9 hPa 0,0 mm 1,9 km/h (1 Bft) NO 304 0 min 0 min 0,000 mm 0,0 UV-I 63 W/m 9,2 C 9,8 C 5,3 km/h (1 Bft) 93,33 %
21/05/2019 07:51 9,8 C 96 % 1015,9 hPa 0,0 mm 2,3 km/h (1 Bft) O-NO 294 0 min 0 min 0,000 mm 0,0 UV-I 56 W/m 9,2 C 9,8 C 5,3 km/h (1 Bft) 100,00 %
21/05/2019 07:50 9,8 C 96 % 1015,8 hPa 0,0 mm 3,3 km/h (1 Bft) O-NO 284 0 min 0 min 0,000 mm 0,0 UV-I 59 W/m 9,2 C 9,8 C 5,3 km/h (1 Bft) 95,83 %
21/05/2019 07:49 9,7 C 96 % 1015,8 hPa 0,0 mm 0,1 km/h (0 Bft) O-NO 286 0 min 0 min 0,000 mm 0,0 UV-I 60 W/m 9,1 C 9,7 C 1,8 km/h (1 Bft) 95,83 %
21/05/2019 07:48 9,7 C 96 % 1015,9 hPa 0,0 mm 1,6 km/h (1 Bft) O-NO 286 0 min 0 min 0,000 mm 0,0 UV-I 57 W/m 9,1 C 9,7 C 3,5 km/h (1 Bft) 92,00 %
21/05/2019 07:47 9,6 C 96 % 1015,8 hPa 0,0 mm 1,8 km/h (1 Bft) O-NO 284 0 min 0 min 0,000 mm 0,0 UV-I 53 W/m 9,0 C 9,6 C 3,5 km/h (1 Bft) 100,00 %
21/05/2019 07:46 9,6 C 96 % 1015,9 hPa 0,0 mm 2,4 km/h (1 Bft) O-NO 285 0 min 0 min 0,000 mm 0,0 UV-I 49 W/m 9,0 C 9,6 C 5,3 km/h (1 Bft) 92,00 %
21/05/2019 07:45 9,5 C 96 % 1015,8 hPa 0,0 mm 2,4 km/h (1 Bft) O-NO 286 0 min 0 min 0,000 mm 0,0 UV-I 47 W/m 8,9 C 9,5 C 5,3 km/h (1 Bft) 95,83 %
21/05/2019 07:44 9,4 C 96 % 1015,8 hPa 0,0 mm 0,8 km/h (0 Bft) O-NO 300 0 min 0 min 0,000 mm 0,0 UV-I 47 W/m 8,8 C 9,4 C 3,5 km/h (1 Bft) 96,43 %
21/05/2019 07:43 9,4 C 96 % 1015,8 hPa 0,0 mm 1,6 km/h (1 Bft) O-NO 297 0 min 0 min 0,000 mm 0,0 UV-I 48 W/m 8,8 C 9,4 C 3,5 km/h (1 Bft) 100,00 %
21/05/2019 07:42 9,4 C 96 % 1015,8 hPa 0,0 mm 2,6 km/h (1 Bft) O-NO 300 0 min 0 min 0,000 mm 0,0 UV-I 51 W/m 8,8 C 9,4 C 5,3 km/h (1 Bft) 95,83 %
21/05/2019 07:41 9,3 C 96 % 1015,8 hPa 0,0 mm 0,7 km/h (0 Bft) N-NO 329 0 min 0 min 0,000 mm 0,0 UV-I 50 W/m 8,7 C 9,3 C 3,5 km/h (1 Bft) 97,62 %
21/05/2019 07:40 9,3 C 96 % 1015,8 hPa 0,0 mm 1,4 km/h (1 Bft) N-NO 330 0 min 0 min 0,000 mm 0,0 UV-I 49 W/m 8,7 C 9,3 C 3,5 km/h (1 Bft) 100,00 %
21/05/2019 07:39 9,2 C 96 % 1015,8 hPa 0,0 mm 3,2 km/h (1 Bft) O-NO 282 0 min 0 min 0,000 mm 0,0 UV-I 51 W/m 8,6 C 9,2 C 5,3 km/h (1 Bft) 95,83 %
21/05/2019 07:38 9,2 C 96 % 1015,8 hPa 0,0 mm 0,8 km/h (0 Bft) NO 310 0 min 0 min 0,000 mm 0,0 UV-I 52 W/m 8,6 C 9,2 C 3,5 km/h (1 Bft) 100,00 %
21/05/2019 07:37 9,1 C 96 % 1015,8 hPa 0,0 mm 1,0 km/h (0 Bft) O-NO 296 0 min 0 min 0,000 mm 0,0 UV-I 53 W/m 8,5 C 9,1 C 3,5 km/h (1 Bft) 91,67 %
21/05/2019 07:36 9,1 C 96 % 1015,8 hPa 0,0 mm 0,2 km/h (0 Bft) O-NO 296 0 min 0 min 0,000 mm 0,0 UV-I 53 W/m 8,5 C 9,1 C 1,8 km/h (1 Bft) 100,00 %
21/05/2019 07:35 9,0 C 96 % 1015,7 hPa 0,0 mm 2,1 km/h (1 Bft) O-NO 296 0 min 0 min 0,000 mm 0,0 UV-I 52 W/m 8,4 C 9,0 C 3,5 km/h (1 Bft) 96,55 %
21/05/2019 07:34 9,0 C 96 % 1015,8 hPa 0,0 mm 2,5 km/h (1 Bft) O-NO 294 0 min 0 min 0,000 mm 0,0 UV-I 49 W/m 8,4 C 9,0 C 5,3 km/h (1 Bft) 96,15 %
21/05/2019 07:33 8,9 C 96 % 1015,8 hPa 0,0 mm 0,0 km/h (0 Bft) O-NO 292 0 min 0 min 0,000 mm 0,0 UV-I 44 W/m 8,3 C 8,9 C 0,0 km/h (0 Bft) 100,00 %
21/05/2019 07:32 8,9 C 96 % 1015,8 hPa 0,0 mm 0,0 km/h (0 Bft) O-NO 292 0 min 0 min 0,000 mm 0,0 UV-I 46 W/m 8,3 C 8,9 C 0,0 km/h (0 Bft) 100,00 %
21/05/2019 07:31 8,9 C 96 % 1015,8 hPa 0,0 mm 0,0 km/h (0 Bft) O-NO 284 0 min 0 min 0,000 mm 0,0 UV-I 46 W/m 8,3 C 8,9 C 0,0 km/h (0 Bft) 100,00 %
21/05/2019 07:30 8,8 C 96 % 1015,7 hPa 0,0 mm 0,0 km/h (0 Bft) O-NO 284 0 min 0 min 0,000 mm 0,0 UV-I 46 W/m 8,2 C 8,8 C 0,0 km/h (0 Bft) 97,96 %
21/05/2019 07:28 8,7 C 96 % 1015,7 hPa 0,0 mm 0,0 km/h (0 Bft) O-NO 282 0 min 0 min 0,000 mm 0,0 UV-I 49 W/m 8,1 C 8,7 C 0,0 km/h (0 Bft) 100,00 %
21/05/2019 07:27 8,7 C 96 % 1015,7 hPa 0,0 mm 0,0 km/h (0 Bft) O-NO 282 0 min 0 min 0,000 mm 0,0 UV-I 49 W/m 8,1 C 8,7 C 0,0 km/h (0 Bft) 100,00 %
21/05/2019 07:26 8,6 C 96 % 1015,7 hPa 0,0 mm 0,0 km/h (0 Bft) O-NO 282 0 min 0 min 0,000 mm 0,0 UV-I 48 W/m 8,0 C 8,6 C 0,0 km/h (0 Bft) 100,00 %
21/05/2019 07:25 8,5 C 96 % 1015,7 hPa 0,0 mm 0,0 km/h (0 Bft) O-NO 282 0 min 0 min 0,000 mm 0,0 UV-I 48 W/m 7,9 C 8,5 C 0,0 km/h (0 Bft) 100,00 %
21/05/2019 07:24 8,4 C 96 % 1015,7 hPa 0,0 mm 0,3 km/h (0 Bft) O-NO 282 0 min 0 min 0,000 mm 0,0 UV-I 46 W/m 7,8 C 8,4 C 1,8 km/h (1 Bft) 100,00 %
21/05/2019 07:23 8,4 C 96 % 1015,7 hPa 0,0 mm 1,2 km/h (1 Bft) O-NO 282 0 min 0 min 0,000 mm 0,0 UV-I 36 W/m 7,8 C 8,4 C 3,5 km/h (1 Bft) 100,00 %
21/05/2019 07:22 8,3 C 96 % 1015,7 hPa 0,0 mm 0,4 km/h (0 Bft) NO 313 0 min 0 min 0,000 mm 0,0 UV-I 29 W/m 7,7 C 8,3 C 1,8 km/h (1 Bft) 100,00 %
21/05/2019 07:21 8,3 C 96 % 1015,6 hPa 0,0 mm 2,4 km/h (1 Bft) NO 313 0 min 0 min 0,000 mm 0,0 UV-I 27 W/m 7,7 C 8,3 C 3,5 km/h (1 Bft) 100,00 %
21/05/2019 07:20 8,2 C 96 % 1015,6 hPa 0,0 mm 0,3 km/h (0 Bft) NO 314 0 min 0 min 0,000 mm 0,0 UV-I 32 W/m 7,6 C 8,2 C 3,5 km/h (1 Bft) 96,00 %
21/05/2019 07:19 8,2 C 96 % 1015,6 hPa 0,0 mm 0,0 km/h (0 Bft) NO 315 0 min 0 min 0,000 mm 0,0 UV-I 33 W/m 7,6 C 8,2 C 0,0 km/h (0 Bft) 100,00 %
21/05/2019 07:18 8,1 C 96 % 1015,6 hPa 0,0 mm 0,0 km/h (0 Bft) NO 315 0 min 0 min 0,000 mm 0,0 UV-I 32 W/m 7,5 C 8,1 C 0,0 km/h (0 Bft) 96,15 %
21/05/2019 07:17 8,1 C 96 % 1015,6 hPa 0,0 mm 0,0 km/h (0 Bft) NO 315 0 min 0 min 0,000 mm 0,0 UV-I 32 W/m 7,5 C 8,1 C 0,0 km/h (0 Bft) 100,00 %
21/05/2019 07:16 8,0 C 96 % 1015,6 hPa 0,0 mm 0,0 km/h (0 Bft) NO 315 0 min 0 min 0,000 mm 0,0 UV-I 26 W/m 7,4 C 8,0 C 0,0 km/h (0 Bft) 93,33 %
21/05/2019 07:15 8,0 C 96 % 1015,6 hPa 0,0 mm 0,0 km/h (0 Bft) NO 315 0 min 0 min 0,000 mm 0,0 UV-I 21 W/m 7,4 C 8,0 C 0,0 km/h (0 Bft) 100,00 %
21/05/2019 07:14 7,9 C 96 % 1015,6 hPa 0,0 mm 0,0 km/h (0 Bft) NO 315 0 min 0 min 0,000 mm 0,0 UV-I 25 W/m 7,3 C 7,9 C 0,0 km/h (0 Bft) 96,30 %
21/05/2019 07:13 7,9 C 96 % 1015,6 hPa 0,0 mm 0,0 km/h (0 Bft) NO 315 0 min 0 min 0,000 mm 0,0 UV-I 28 W/m 7,3 C 7,9 C 0,0 km/h (0 Bft) 100,00 %
21/05/2019 07:12 7,8 C 96 % 1015,6 hPa 0,0 mm 0,0 km/h (0 Bft) NO 315 0 min 0 min 0,000 mm 0,0 UV-I 30 W/m 7,2 C 7,8 C 0,0 km/h (0 Bft) 96,00 %
21/05/2019 07:11 7,8 C 96 % 1015,6 hPa 0,0 mm 0,0 km/h (0 Bft) NO 315 0 min 0 min 0,000 mm 0,0 UV-I 30 W/m 7,2 C 7,8 C 0,0 km/h (0 Bft) 100,00 %
21/05/2019 07:10 7,8 C 96 % 1015,6 hPa 0,0 mm 0,0 km/h (0 Bft) NO 315 0 min 0 min 0,000 mm 0,0 UV-I 30 W/m 7,2 C 7,8 C 0,0 km/h (0 Bft) 95,83 %
21/05/2019 07:09 7,8 C 96 % 1015,5 hPa 0,0 mm 0,0 km/h (0 Bft) NO 315 0 min 0 min 0,000 mm 0,0 UV-I 27 W/m 7,2 C 7,8 C 0,0 km/h (0 Bft) 100,00 %
21/05/2019 07:08 7,7 C 96 % 1015,6 hPa 0,0 mm 0,0 km/h (0 Bft) NO 315 0 min 0 min 0,000 mm 0,0 UV-I 26 W/m 7,1 C 7,7 C 0,0 km/h (0 Bft) 100,00 %
21/05/2019 07:07 7,7 C 96 % 1015,6 hPa 0,0 mm 0,0 km/h (0 Bft) NO 315 0 min 0 min 0,000 mm 0,0 UV-I 24 W/m 7,1 C 7,7 C 0,0 km/h (0 Bft) 100,00 %
21/05/2019 07:06 7,7 C 96 % 1015,5 hPa 0,0 mm 0,0 km/h (0 Bft) NO 315 0 min 0 min 0,000 mm 0,0 UV-I 23 W/m 7,1 C 7,7 C 0,0 km/h (0 Bft) 100,00 %
21/05/2019 07:05 7,7 C 96 % 1015,5 hPa 0,0 mm 0,0 km/h (0 Bft) NO 315 0 min 0 min 0,000 mm 0,0 UV-I 21 W/m 7,1 C 7,7 C 0,0 km/h (0 Bft) 100,00 %
21/05/2019 07:04 7,7 C 96 % 1015,6 hPa 0,0 mm 0,0 km/h (0 Bft) NO 315 0 min 0 min 0,000 mm 0,0 UV-I 21 W/m 7,1 C 7,7 C 0,0 km/h (0 Bft) 100,00 %
21/05/2019 07:03 7,7 C 96 % 1015,6 hPa 0,0 mm 0,0 km/h (0 Bft) NO 315 0 min 0 min 0,000 mm 0,0 UV-I 21 W/m 7,1 C 7,7 C 0,0 km/h (0 Bft) 100,00 %
21/05/2019 07:02 7,7 C 96 % 1015,5 hPa 0,0 mm 0,0 km/h (0 Bft) NO 315 0 min 0 min 0,000 mm 0,0 UV-I 22 W/m 7,1 C 7,7 C 0,0 km/h (0 Bft) 95,83 %
21/05/2019 07:01 7,7 C 96 % 1015,5 hPa 0,0 mm 0,0 km/h (0 Bft) NO 315 0 min 0 min 0,000 mm 0,0 UV-I 22 W/m 7,1 C 7,7 C 0,0 km/h (0 Bft) 100,00 %
21/05/2019 07:00 7,7 C 96 % 1015,5 hPa 0,0 mm 0,0 km/h (0 Bft) NO 315 0 min 0 min 0,000 mm 0,0 UV-I 20 W/m 7,1 C 7,7 C 0,0 km/h (0 Bft) 100,00 %
21/05/2019 06:59 7,6 C 96 % 1015,5 hPa 0,0 mm 0,0 km/h (0 Bft) NO 315 0 min 0 min 0,000 mm 0,0 UV-I 18 W/m 7,0 C 7,6 C 0,0 km/h (0 Bft) 100,00 %
21/05/2019 06:58 7,6 C 96 % 1015,5 hPa 0,0 mm 0,0 km/h (0 Bft) NO 315 0 min 0 min 0,000 mm 0,0 UV-I 18 W/m 7,0 C 7,6 C 0,0 km/h (0 Bft) 100,00 %
21/05/2019 06:57 7,6 C 96 % 1015,6 hPa 0,0 mm 0,0 km/h (0 Bft) NO 315 0 min 0 min 0,000 mm 0,0 UV-I 16 W/m 7,0 C 7,6 C 0,0 km/h (0 Bft) 100,00 %
21/05/2019 06:56 7,6 C 96 % 1015,5 hPa 0,0 mm 0,0 km/h (0 Bft) NO 315 0 min 0 min 0,000 mm 0,0 UV-I 18 W/m 7,0 C 7,6 C 0,0 km/h (0 Bft) 100,00 %
21/05/2019 06:55 7,6 C 96 % 1015,5 hPa 0,0 mm 0,0 km/h (0 Bft) NO 315 0 min 0 min 0,000 mm 0,0 UV-I 19 W/m 7,0 C 7,6 C 0,0 km/h (0 Bft) 100,00 %
21/05/2019 06:54 7,5 C 96 % 1015,5 hPa 0,0 mm 0,0 km/h (0 Bft) NO 315 0 min 0 min 0,000 mm 0,0 UV-I 18 W/m 6,9 C 7,5 C 0,0 km/h (0 Bft) 100,00 %
21/05/2019 06:53 7,5 C 96 % 1015,5 hPa 0,0 mm 0,0 km/h (0 Bft) NO 315 0 min 0 min 0,000 mm 0,0 UV-I 16 W/m 6,9 C 7,5 C 0,0 km/h (0 Bft) 96,30 %
21/05/2019 06:52 7,4 C 96 % 1015,6 hPa 0,0 mm 0,0 km/h (0 Bft) NO 315 0 min 0 min 0,000 mm 0,0 UV-I 16 W/m 6,8 C 7,4 C 0,0 km/h (0 Bft) 100,00 %
21/05/2019 06:51 7,4 C 96 % 1015,5 hPa 0,0 mm 0,0 km/h (0 Bft) NO 315 0 min 0 min 0,000 mm 0,0 UV-I 13 W/m 6,8 C 7,4 C 0,0 km/h (0 Bft) 100,00 %
21/05/2019 06:50 7,4 C 96 % 1015,5 hPa 0,0 mm 0,0 km/h (0 Bft) NO 315 0 min 0 min 0,000 mm 0,0 UV-I 12 W/m 6,8 C 7,4 C 0,0 km/h (0 Bft) 100,00 %
21/05/2019 06:49 7,4 C 96 % 1015,5 hPa 0,0 mm 0,0 km/h (0 Bft) NO 315 0 min 0 min 0,000 mm 0,0 UV-I 11 W/m 6,8 C 7,4 C 0,0 km/h (0 Bft) 100,00 %
21/05/2019 06:48 7,4 C 96 % 1015,5 hPa 0,0 mm 0,0 km/h (0 Bft) NO 315 0 min 0 min 0,000 mm 0,0 UV-I 11 W/m 6,8 C 7,4 C 0,0 km/h (0 Bft) 100,00 %
21/05/2019 06:47 7,4 C 96 % 1015,5 hPa 0,0 mm 0,0 km/h (0 Bft) NO 315 0 min 0 min 0,000 mm 0,0 UV-I 11 W/m 6,8 C 7,4 C 0,0 km/h (0 Bft) 100,00 %
21/05/2019 06:46 7,5 C 96 % 1015,5 hPa 0,0 mm 0,0 km/h (0 Bft) NO 315 0 min 0 min 0,000 mm 0,0 UV-I 9 W/m 6,9 C 7,5 C 0,0 km/h (0 Bft) 100,00 %
21/05/2019 06:45 7,6 C 96 % 1015,5 hPa 0,0 mm 0,0 km/h (0 Bft) NO 315 0 min 0 min 0,000 mm 0,0 UV-I 9 W/m 7,0 C 7,6 C 0,0 km/h (0 Bft) 100,00 %
21/05/2019 06:44 7,6 C 96 % 1015,5 hPa 0,0 mm 0,0 km/h (0 Bft) NO 315 0 min 0 min 0,000 mm 0,0 UV-I 9 W/m 7,0 C 7,6 C 0,0 km/h (0 Bft) 100,00 %
21/05/2019 06:43 7,6 C 96 % 1015,4 hPa 0,0 mm 0,0 km/h (0 Bft) NO 315 0 min 0 min 0,000 mm 0,0 UV-I 8 W/m 7,0 C 7,6 C 0,0 km/h (0 Bft) 100,00 %
21/05/2019 06:42 7,6 C 96 % 1015,5 hPa 0,0 mm 0,0 km/h (0 Bft) NO 315 0 min 0 min 0,000 mm 0,0 UV-I 7 W/m 7,0 C 7,6 C 0,0 km/h (0 Bft) 95,83 %
21/05/2019 06:41 7,6 C 96 % 1015,5 hPa 0,0 mm 0,0 km/h (0 Bft) NO 315 0 min 0 min 0,000 mm 0,0 UV-I 7 W/m 7,0 C 7,6 C 0,0 km/h (0 Bft) 95,83 %
21/05/2019 06:40 7,6 C 96 % 1015,5 hPa 0,0 mm 0,0 km/h (0 Bft) NO 315 0 min 0 min 0,000 mm 0,0 UV-I 7 W/m 7,0 C 7,6 C 0,0 km/h (0 Bft) 92,31 %
21/05/2019 06:39 7,7 C 96 % 1015,5 hPa 0,0 mm 0,0 km/h (0 Bft) NO 315 0 min 0 min 0,000 mm 0,0 UV-I 9 W/m 7,1 C 7,7 C 0,0 km/h (0 Bft) 92,00 %
21/05/2019 06:38 7,7 C 96 % 1015,5 hPa 0,0 mm 0,0 km/h (0 Bft) NO 315 0 min 0 min 0,000 mm 0,0 UV-I 9 W/m 7,1 C 7,7 C 0,0 km/h (0 Bft) 100,00 %
21/05/2019 06:37 7,7 C 96 % 1015,4 hPa 0,0 mm 0,0 km/h (0 Bft) NO 315 0 min 0 min 0,000 mm 0,0 UV-I 9 W/m 7,1 C 7,7 C 0,0 km/h (0 Bft) 100,00 %
21/05/2019 06:36 7,7 C 96 % 1015,4 hPa 0,0 mm 0,0 km/h (0 Bft) NO 315 0 min 0 min 0,000 mm 0,0 UV-I 9 W/m 7,1 C 7,7 C 0,0 km/h (0 Bft) 95,83 %
21/05/2019 06:35 7,6 C 96 % 1015,5 hPa 0,0 mm 0,0 km/h (0 Bft) NO 315 0 min 0 min 0,000 mm 0,0 UV-I 9 W/m 7,0 C 7,6 C 0,0 km/h (0 Bft) 96,00 %
21/05/2019 06:34 7,6 C 96 % 1015,4 hPa 0,0 mm 0,0 km/h (0 Bft) NO 315 0 min 0 min 0,000 mm 0,0 UV-I 9 W/m 7,0 C 7,6 C 0,0 km/h (0 Bft) 100,00 %
21/05/2019 06:33 7,6 C 96 % 1015,4 hPa 0,0 mm 0,0 km/h (0 Bft) NO 315 0 min 0 min 0,000 mm 0,0 UV-I 9 W/m 7,0 C 7,6 C 0,0 km/h (0 Bft) 96,30 %
21/05/2019 06:32 7,6 C 96 % 1015,4 hPa 0,0 mm 0,0 km/h (0 Bft) NO 315 0 min 0 min 0,000 mm 0,0 UV-I 9 W/m 7,0 C 7,6 C 0,0 km/h (0 Bft) 100,00 %
21/05/2019 06:31 7,6 C 96 % 1015,4 hPa 0,0 mm 0,0 km/h (0 Bft) NO 315 0 min 0 min 0,000 mm 0,0 UV-I 9 W/m 7,0 C 7,6 C 0,0 km/h (0 Bft) 95,65 %
21/05/2019 06:30 7,6 C 96 % 1015,4 hPa 0,0 mm 0,0 km/h (0 Bft) NO 315 0 min 0 min 0,000 mm 0,0 UV-I 9 W/m 7,0 C 7,6 C 0,0 km/h (0 Bft) 100,00 %
21/05/2019 06:29 7,6 C 96 % 1015,4 hPa 0,0 mm 0,0 km/h (0 Bft) NO 315 0 min 0 min 0,000 mm 0,0 UV-I 7 W/m 7,0 C 7,6 C 0,0 km/h (0 Bft) 100,00 %
21/05/2019 06:28 7,6 C 96 % 1015,4 hPa 0,0 mm 0,0 km/h (0 Bft) NO 315 0 min 0 min 0,000 mm 0,0 UV-I 7 W/m 7,0 C 7,6 C 0,0 km/h (0 Bft) 100,00 %
21/05/2019 06:27 7,6 C 96 % 1015,3 hPa 0,0 mm 0,0 km/h (0 Bft) NO 315 0 min 0 min 0,000 mm 0,0 UV-I 7 W/m 7,0 C 7,6 C 0,0 km/h (0 Bft) 100,00 %
21/05/2019 06:26 7,6 C 96 % 1015,4 hPa 0,0 mm 0,0 km/h (0 Bft) NO 315 0 min 0 min 0,000 mm 0,0 UV-I 6 W/m 7,0 C 7,6 C 0,0 km/h (0 Bft) 100,00 %
21/05/2019 06:25 7,6 C 96 % 1015,4 hPa 0,0 mm 0,0 km/h (0 Bft) NO 315 0 min 0 min 0,000 mm 0,0 UV-I 5 W/m 7,0 C 7,6 C 0,0 km/h (0 Bft) 100,00 %
21/05/2019 06:24 7,6 C 96 % 1015,4 hPa 0,0 mm 0,0 km/h (0 Bft) NO 315 0 min 0 min 0,000 mm 0,0 UV-I 5 W/m 7,0 C 7,6 C 0,0 km/h (0 Bft) 100,00 %
21/05/2019 06:23 7,6 C 96 % 1015,4 hPa 0,0 mm 0,0 km/h (0 Bft) NO 315 0 min 0 min 0,000 mm 0,0 UV-I 5 W/m 7,0 C 7,6 C 0,0 km/h (0 Bft) 100,00 %
21/05/2019 06:22 7,6 C 96 % 1015,4 hPa 0,0 mm 0,0 km/h (0 Bft) NO 315 0 min 0 min 0,000 mm 0,0 UV-I 5 W/m 7,0 C 7,6 C 0,0 km/h (0 Bft) 100,00 %
21/05/2019 06:21 7,6 C 96 % 1015,4 hPa 0,0 mm 0,0 km/h (0 Bft) NO 315 0 min 0 min 0,000 mm 0,0 UV-I 3 W/m 7,0 C 7,6 C 0,0 km/h (0 Bft) 100,00 %
21/05/2019 06:20 7,6 C 96 % 1015,4 hPa 0,0 mm 0,0 km/h (0 Bft) NO 315 0 min 0 min 0,000 mm 0,0 UV-I 0 W/m 7,0 C 7,6 C 0,0 km/h (0 Bft) 100,00 %
21/05/2019 06:19 7,6 C 96 % 1015,4 hPa 0,0 mm 0,0 km/h (0 Bft) NO 315 0 min 0 min 0,000 mm 0,0 UV-I 0 W/m 7,0 C 7,6 C 0,0 km/h (0 Bft) 100,00 %
21/05/2019 06:18 7,7 C 96 % 1015,4 hPa 0,0 mm 0,0 km/h (0 Bft) NO 315 0 min 0 min 0,000 mm 0,0 UV-I 0 W/m 7,1 C 7,7 C 0,0 km/h (0 Bft) 100,00 %
21/05/2019 06:17 7,7 C 96 % 1015,3 hPa 0,0 mm 0,0 km/h (0 Bft) NO 315 0 min 0 min 0,000 mm 0,0 UV-I 0 W/m 7,1 C 7,7 C 0,0 km/h (0 Bft) 100,00 %
21/05/2019 06:16 7,7 C 96 % 1015,3 hPa 0,0 mm 0,0 km/h (0 Bft) NO 315 0 min 0 min 0,000 mm 0,0 UV-I 0 W/m 7,1 C 7,7 C 0,0 km/h (0 Bft) 95,65 %
21/05/2019 06:15 7,7 C 96 % 1015,3 hPa 0,0 mm 0,0 km/h (0 Bft) NO 315 0 min 0 min 0,000 mm 0,0 UV-I 0 W/m 7,1 C 7,7 C 0,0 km/h (0 Bft) 100,00 %
21/05/2019 06:14 7,6 C 96 % 1015,3 hPa 0,0 mm 0,0 km/h (0 Bft) NO 315 0 min 0 min 0,000 mm 0,0 UV-I 0 W/m 7,0 C 7,6 C 0,0 km/h (0 Bft) 100,00 %
21/05/2019 06:13 7,6 C 96 % 1015,4 hPa 0,0 mm 0,0 km/h (0 Bft) NO 315 0 min 0 min 0,000 mm 0,0 UV-I 0 W/m 7,0 C 7,6 C 0,0 km/h (0 Bft) 100,00 %
21/05/2019 06:12 7,6 C 96 % 1015,3 hPa 0,0 mm 0,0 km/h (0 Bft) NO 315 0 min 0 min 0,000 mm 0,0 UV-I 0 W/m 7,0 C 7,6 C 0,0 km/h (0 Bft) 100,00 %
21/05/2019 06:11 7,5 C 96 % 1015,3 hPa 0,0 mm 0,0 km/h (0 Bft) NO 315 0 min 0 min 0,000 mm 0,0 UV-I 0 W/m 6,9 C 7,5 C 0,0 km/h (0 Bft) 100,00 %
21/05/2019 06:10 7,5 C 96 % 1015,3 hPa 0,0 mm 0,0 km/h (0 Bft) NO 315 0 min 0 min 0,000 mm 0,0 UV-I 0 W/m 6,9 C 7,5 C 0,0 km/h (0 Bft) 100,00 %
21/05/2019 06:09 7,4 C 96 % 1015,3 hPa 0,0 mm 0,0 km/h (0 Bft) NO 315 0 min 0 min 0,000 mm 0,0 UV-I 0 W/m 6,8 C 7,4 C 0,0 km/h (0 Bft) 95,83 %
21/05/2019 06:08 7,4 C 96 % 1015,3 hPa 0,0 mm 0,0 km/h (0 Bft) NO 315 0 min 0 min 0,000 mm 0,0 UV-I 0 W/m 6,8 C 7,4 C 0,0 km/h (0 Bft) 100,00 %
21/05/2019 06:07 7,4 C 96 % 1015,3 hPa 0,0 mm 0,0 km/h (0 Bft) NO 315 0 min 0 min 0,000 mm 0,0 UV-I 0 W/m 6,8 C 7,4 C 0,0 km/h (0 Bft) 100,00 %
21/05/2019 06:06 7,4 C 96 % 1015,3 hPa 0,0 mm 0,0 km/h (0 Bft) NO 315 0 min 0 min 0,000 mm 0,0 UV-I 0 W/m 6,8 C 7,4 C 0,0 km/h (0 Bft) 100,00 %
21/05/2019 06:05 7,4 C 96 % 1015,3 hPa 0,0 mm 0,0 km/h (0 Bft) NO 315 0 min 0 min 0,000 mm 0,0 UV-I 0 W/m 6,8 C 7,4 C 0,0 km/h (0 Bft) 95,83 %
21/05/2019 06:04 7,4 C 96 % 1015,3 hPa 0,0 mm 0,0 km/h (0 Bft) NO 315 0 min 0 min 0,000 mm 0,0 UV-I 0 W/m 6,8 C 7,4 C 0,0 km/h (0 Bft) 100,00 %
21/05/2019 06:03 7,4 C 96 % 1015,4 hPa 0,0 mm 0,0 km/h (0 Bft) NO 315 0 min 0 min 0,000 mm 0,0 UV-I 0 W/m 6,8 C 7,4 C 0,0 km/h (0 Bft) 95,65 %
21/05/2019 06:02 7,4 C 96 % 1015,3 hPa 0,0 mm 0,0 km/h (0 Bft) NO 315 0 min 0 min 0,000 mm 0,0 UV-I 0 W/m 6,8 C 7,4 C 0,0 km/h (0 Bft) 100,00 %
21/05/2019 06:01 7,4 C 96 % 1015,3 hPa 0,0 mm 0,0 km/h (0 Bft) NO 315 0 min 0 min 0,000 mm 0,0 UV-I 0 W/m 6,8 C 7,4 C 0,0 km/h (0 Bft) 95,83 %
21/05/2019 06:00 7,4 C 96 % 1015,3 hPa 0,0 mm 0,0 km/h (0 Bft) NO 315 0 min 0 min 0,000 mm 0,0 UV-I 0 W/m 6,8 C 7,4 C 0,0 km/h (0 Bft) 95,83 %
21/05/2019 05:59 7,4 C 96 % 1015,3 hPa 0,0 mm 0,0 km/h (0 Bft) NO 315 0 min 0 min 0,000 mm 0,0 UV-I 0 W/m 6,8 C 7,4 C 0,0 km/h (0 Bft) 96,30 %
21/05/2019 05:58 7,5 C 96 % 1015,3 hPa 0,0 mm 0,0 km/h (0 Bft) NO 315 0 min 0 min 0,000 mm 0,0 UV-I 0 W/m 6,9 C 7,5 C 0,0 km/h (0 Bft) 100,00 %
21/05/2019 05:57 7,5 C 96 % 1015,4 hPa 0,0 mm 0,0 km/h (0 Bft) NO 315 0 min 0 min 0,000 mm 0,0 UV-I 0 W/m 6,9 C 7,5 C 0,0 km/h (0 Bft) 96,00 %
21/05/2019 05:56 7,5 C 96 % 1015,3 hPa 0,0 mm 0,0 km/h (0 Bft) NO 315 0 min 0 min 0,000 mm 0,0 UV-I 0 W/m 6,9 C 7,5 C 0,0 km/h (0 Bft) 100,00 %
21/05/2019 05:55 7,5 C 96 % 1015,4 hPa 0,0 mm 0,0 km/h (0 Bft) NO 315 0 min 0 min 0,000 mm 0,0 UV-I 0 W/m 6,9 C 7,5 C 0,0 km/h (0 Bft) 100,00 %
21/05/2019 05:54 7,5 C 96 % 1015,4 hPa 0,0 mm 0,0 km/h (0 Bft) NO 315 0 min 0 min 0,000 mm 0,0 UV-I 0 W/m 6,9 C 7,5 C 0,0 km/h (0 Bft) 100,00 %
21/05/2019 05:53 7,5 C 96 % 1015,4 hPa 0,0 mm 0,0 km/h (0 Bft) NO 315 0 min 0 min 0,000 mm 0,0 UV-I 0 W/m 6,9 C 7,5 C 0,0 km/h (0 Bft) 95,83 %
21/05/2019 05:52 7,5 C 96 % 1015,3 hPa 0,0 mm 0,0 km/h (0 Bft) NO 315 0 min 0 min 0,000 mm 0,0 UV-I 0 W/m 6,9 C 7,5 C 0,0 km/h (0 Bft) 100,00 %
21/05/2019 05:51 7,5 C 96 % 1015,3 hPa 0,0 mm 0,0 km/h (0 Bft) NO 315 0 min 0 min 0,000 mm 0,0 UV-I 0 W/m 6,9 C 7,5 C 0,0 km/h (0 Bft) 100,00 %
21/05/2019 05:50 7,5 C 96 % 1015,3 hPa 0,0 mm 0,0 km/h (0 Bft) NO 315 0 min 0 min 0,000 mm 0,0 UV-I 0 W/m 6,9 C 7,5 C 0,0 km/h (0 Bft) 100,00 %
21/05/2019 05:49 7,6 C 95 % 1015,3 hPa 0,0 mm 0,0 km/h (0 Bft) NO 315 0 min 0 min 0,000 mm 0,0 UV-I 0 W/m 6,9 C 7,6 C 0,0 km/h (0 Bft) 100,00 %
21/05/2019 05:48 7,5 C 95 % 1015,2 hPa 0,0 mm 0,0 km/h (0 Bft) NO 315 0 min 0 min 0,000 mm 0,0 UV-I 0 W/m 6,8 C 7,5 C 0,0 km/h (0 Bft) 100,00 %
21/05/2019 05:47 7,6 C 95 % 1015,2 hPa 0,0 mm 0,0 km/h (0 Bft) NO 315 0 min 0 min 0,000 mm 0,0 UV-I 0 W/m 6,9 C 7,6 C 0,0 km/h (0 Bft) 100,00 %
21/05/2019 05:46 7,6 C 96 % 1015,3 hPa 0,0 mm 0,0 km/h (0 Bft) NO 315 0 min 0 min 0,000 mm 0,0 UV-I 0 W/m 7,0 C 7,6 C 0,0 km/h (0 Bft) 100,00 %
21/05/2019 05:45 7,6 C 96 % 1015,3 hPa 0,0 mm 0,0 km/h (0 Bft) NO 315 0 min 0 min 0,000 mm 0,0 UV-I 0 W/m 7,0 C 7,6 C 0,0 km/h (0 Bft) 96,00 %
21/05/2019 05:44 7,6 C 96 % 1015,2 hPa 0,0 mm 0,0 km/h (0 Bft) NO 315 0 min 0 min 0,000 mm 0,0 UV-I 0 W/m 7,0 C 7,6 C 0,0 km/h (0 Bft) 91,67 %
21/05/2019 05:43 7,6 C 96 % 1015,2 hPa 0,0 mm 0,0 km/h (0 Bft) NO 315 0 min 0 min 0,000 mm 0,0 UV-I 0 W/m 7,0 C 7,6 C 0,0 km/h (0 Bft) 100,00 %
21/05/2019 05:42 7,7 C 96 % 1015,2 hPa 0,0 mm 0,0 km/h (0 Bft) NO 315 0 min 0 min 0,000 mm 0,0 UV-I 0 W/m 7,1 C 7,7 C 0,0 km/h (0 Bft) 96,00 %
21/05/2019 05:41 7,7 C 96 % 1015,2 hPa 0,0 mm 0,0 km/h (0 Bft) NO 315 0 min 0 min 0,000 mm 0,0 UV-I 0 W/m 7,1 C 7,7 C 0,0 km/h (0 Bft) 95,83 %
21/05/2019 05:40 7,7 C 96 % 1015,2 hPa 0,0 mm 0,0 km/h (0 Bft) NO 315 0 min 0 min 0,000 mm 0,0 UV-I 0 W/m 7,1 C 7,7 C 0,0 km/h (0 Bft) 100,00 %
21/05/2019 05:39 7,7 C 96 % 1015,2 hPa 0,0 mm 0,0 km/h (0 Bft) NO 315 0 min 0 min 0,000 mm 0,0 UV-I 0 W/m 7,1 C 7,7 C 0,0 km/h (0 Bft) 100,00 %
21/05/2019 05:38 7,7 C 96 % 1015,2 hPa 0,0 mm 0,0 km/h (0 Bft) NO 315 0 min 0 min 0,000 mm 0,0 UV-I 0 W/m 7,1 C 7,7 C 0,0 km/h (0 Bft) 96,30 %
21/05/2019 05:37 7,7 C 95 % 1015,2 hPa 0,0 mm 0,0 km/h (0 Bft) NO 315 0 min 0 min 0,000 mm 0,0 UV-I 0 W/m 7,0 C 7,7 C 0,0 km/h (0 Bft) 95,83 %
21/05/2019 05:36 7,7 C 95 % 1015,2 hPa 0,0 mm 0,0 km/h (0 Bft) NO 315 0 min 0 min 0,000 mm 0,0 UV-I 0 W/m 7,0 C 7,7 C 0,0 km/h (0 Bft) 100,00 %
21/05/2019 05:35 7,7 C 95 % 1015,2 hPa 0,0 mm 0,0 km/h (0 Bft) NO 315 0 min 0 min 0,000 mm 0,0 UV-I 0 W/m 7,0 C 7,7 C 0,0 km/h (0 Bft) 96,00 %
21/05/2019 05:34 7,7 C 95 % 1015,2 hPa 0,0 mm 0,0 km/h (0 Bft) NO 315 0 min 0 min 0,000 mm 0,0 UV-I 0 W/m 7,0 C 7,7 C 0,0 km/h (0 Bft) 95,83 %
21/05/2019 05:33 7,8 C 95 % 1015,2 hPa 0,0 mm 0,0 km/h (0 Bft) NO 315 0 min 0 min 0,000 mm 0,0 UV-I 0 W/m 7,0 C 7,8 C 0,0 km/h (0 Bft) 100,00 %
21/05/2019 05:32 7,8 C 95 % 1015,2 hPa 0,0 mm 0,0 km/h (0 Bft) NO 315 0 min 0 min 0,000 mm 0,0 UV-I 0 W/m 7,0 C 7,8 C 0,0 km/h (0 Bft) 96,15 %
21/05/2019 05:31 7,8 C 95 % 1015,2 hPa 0,0 mm 0,0 km/h (0 Bft) NO 315 0 min 0 min 0,000 mm 0,0 UV-I 0 W/m 7,0 C 7,8 C 0,0 km/h (0 Bft) 96,67 %
21/05/2019 05:30 7,8 C 95 % 1015,2 hPa 0,0 mm 0,0 km/h (0 Bft) NO 315 0 min 0 min 0,000 mm 0,0 UV-I 0 W/m 7,0 C 7,8 C 0,0 km/h (0 Bft) 93,33 %
21/05/2019 05:29 7,8 C 95 % 1015,2 hPa 0,0 mm 0,0 km/h (0 Bft) NO 315 0 min 0 min 0,000 mm 0,0 UV-I 0 W/m 7,0 C 7,8 C 0,0 km/h (0 Bft) 97,14 %
21/05/2019 05:28 7,8 C 95 % 1015,2 hPa 0,0 mm 0,0 km/h (0 Bft) NO 315 0 min 0 min 0,000 mm 0,0 UV-I 0 W/m 7,0 C 7,8 C 0,0 km/h (0 Bft) 91,67 %
21/05/2019 05:27 7,8 C 95 % 1015,2 hPa 0,0 mm 0,0 km/h (0 Bft) NO 315 0 min 0 min 0,000 mm 0,0 UV-I 0 W/m 7,0 C 7,8 C 0,0 km/h (0 Bft) 96,30 %
21/05/2019 05:26 7,8 C 95 % 1015,1 hPa 0,0 mm 0,0 km/h (0 Bft) NO 315 0 min 0 min 0,000 mm 0,0 UV-I 0 W/m 7,0 C 7,8 C 0,0 km/h (0 Bft) 96,55 %
21/05/2019 05:25 7,9 C 95 % 1015,1 hPa 0,0 mm 0,0 km/h (0 Bft) NO 315 0 min 0 min 0,000 mm 0,0 UV-I 0 W/m 7,1 C 7,9 C 0,0 km/h (0 Bft) 87,50 %
21/05/2019 05:24 7,9 C 95 % 1015,1 hPa 0,0 mm 0,0 km/h (0 Bft) NO 315 0 min 0 min 0,000 mm 0,0 UV-I 0 W/m 7,1 C 7,9 C 0,0 km/h (0 Bft) 100,00 %
21/05/2019 05:23 7,9 C 95 % 1015,2 hPa 0,0 mm 0,0 km/h (0 Bft) NO 315 0 min 0 min 0,000 mm 0,0 UV-I 0 W/m 7,1 C 7,9 C 0,0 km/h (0 Bft) 95,83 %
21/05/2019 05:22 7,9 C 95 % 1015,1 hPa 0,0 mm 0,5 km/h (0 Bft) NO 315 0 min 0 min 0,000 mm 0,0 UV-I 0 W/m 7,1 C 7,9 C 1,8 km/h (1 Bft) 95,83 %
21/05/2019 05:21 8,0 C 95 % 1015,2 hPa 0,0 mm 0,3 km/h (0 Bft) NO 315 0 min 0 min 0,000 mm 0,0 UV-I 0 W/m 7,2 C 8,0 C 1,8 km/h (1 Bft) 92,00 %
21/05/2019 05:20 8,0 C 95 % 1015,1 hPa 0,0 mm 0,0 km/h (0 Bft) NO 315 0 min 0 min 0,000 mm 0,0 UV-I 0 W/m 7,2 C 8,0 C 0,0 km/h (0 Bft) 100,00 %
21/05/2019 05:19 8,0 C 95 % 1015,2 hPa 0,0 mm 0,0 km/h (0 Bft) NO 315 0 min 0 min 0,000 mm 0,0 UV-I 0 W/m 7,2 C 8,0 C 0,0 km/h (0 Bft) 92,00 %
21/05/2019 05:18 8,0 C 95 % 1015,2 hPa 0,0 mm 0,0 km/h (0 Bft) NO 315 0 min 0 min 0,000 mm 0,0 UV-I 0 W/m 7,2 C 8,0 C 0,0 km/h (0 Bft) 100,00 %
21/05/2019 05:17 8,1 C 95 % 1015,1 hPa 0,0 mm 0,0 km/h (0 Bft) NO 315 0 min 0 min 0,000 mm 0,0 UV-I 0 W/m 7,3 C 8,1 C 0,0 km/h (0 Bft) 97,92 %
21/05/2019 05:15 8,1 C 95 % 1015,1 hPa 0,0 mm 0,0 km/h (0 Bft) NO 315 0 min 0 min 0,000 mm 0,0 UV-I 0 W/m 7,3 C 8,1 C 0,0 km/h (0 Bft) 95,83 %
21/05/2019 05:14 8,2 C 95 % 1015,1 hPa 0,0 mm 0,0 km/h (0 Bft) NO 315 0 min 0 min 0,000 mm 0,0 UV-I 0 W/m 7,4 C 8,2 C 0,0 km/h (0 Bft) 96,00 %
21/05/2019 05:13 8,2 C 95 % 1015,0 hPa 0,0 mm 0,0 km/h (0 Bft) NO 315 0 min 0 min 0,000 mm 0,0 UV-I 0 W/m 7,4 C 8,2 C 0,0 km/h (0 Bft) 100,00 %
21/05/2019 05:12 8,2 C 95 % 1015,0 hPa 0,0 mm 0,0 km/h (0 Bft) NO 315 0 min 0 min 0,000 mm 0,0 UV-I 0 W/m 7,4 C 8,2 C 0,0 km/h (0 Bft) 92,31 %
21/05/2019 05:11 8,2 C 95 % 1015,1 hPa 0,0 mm 0,0 km/h (0 Bft) NO 315 0 min 0 min 0,000 mm 0,0 UV-I 0 W/m 7,4 C 8,2 C 0,0 km/h (0 Bft) 100,00 %
21/05/2019 05:10 8,2 C 95 % 1015,0 hPa 0,0 mm 0,1 km/h (0 Bft) NO 315 0 min 0 min 0,000 mm 0,0 UV-I 0 W/m 7,4 C 8,2 C 1,8 km/h (1 Bft) 95,83 %
21/05/2019 05:09 8,3 C 95 % 1015,0 hPa 0,0 mm 0,3 km/h (0 Bft) NO 315 0 min 0 min 0,000 mm 0,0 UV-I 0 W/m 7,5 C 8,3 C 1,8 km/h (1 Bft) 100,00 %
21/05/2019 05:08 8,3 C 95 % 1015,1 hPa 0,0 mm 0,1 km/h (0 Bft) NO 315 0 min 0 min 0,000 mm 0,0 UV-I 0 W/m 7,5 C 8,3 C 1,8 km/h (1 Bft) 94,12 %
21/05/2019 05:07 8,3 C 95 % 1015,0 hPa 0,0 mm 0,1 km/h (0 Bft) NO 315 0 min 0 min 0,000 mm 0,0 UV-I 0 W/m 7,5 C 8,3 C 1,8 km/h (1 Bft) 100,00 %
21/05/2019 05:06 8,3 C 95 % 1015,1 hPa 0,0 mm 0,0 km/h (0 Bft) NO 315 0 min 0 min 0,000 mm 0,0 UV-I 0 W/m 7,5 C 8,3 C 0,0 km/h (0 Bft) 96,30 %
21/05/2019 05:05 8,3 C 95 % 1015,1 hPa 0,0 mm 0,0 km/h (0 Bft) NO 315 0 min 0 min 0,000 mm 0,0 UV-I 0 W/m 7,5 C 8,3 C 0,0 km/h (0 Bft) 100,00 %
21/05/2019 05:04 8,3 C 95 % 1015,1 hPa 0,0 mm 0,9 km/h (0 Bft) NO 315 0 min 0 min 0,000 mm 0,0 UV-I 0 W/m 7,5 C 8,3 C 1,8 km/h (1 Bft) 100,00 %
21/05/2019 05:03 8,3 C 95 % 1015,1 hPa 0,0 mm 0,8 km/h (0 Bft) NO 315 0 min 0 min 0,000 mm 0,0 UV-I 0 W/m 7,5 C 8,3 C 3,5 km/h (1 Bft) 100,00 %
21/05/2019 05:02 8,3 C 95 % 1015,1 hPa 0,0 mm 0,7 km/h (0 Bft) NO 306 0 min 0 min 0,000 mm 0,0 UV-I 0 W/m 7,5 C 8,3 C 1,8 km/h (1 Bft) 100,00 %
21/05/2019 05:01 8,3 C 95 % 1015,0 hPa 0,0 mm 1,0 km/h (0 Bft) NO 306 0 min 0 min 0,000 mm 0,0 UV-I 0 W/m 7,5 C 8,3 C 3,5 km/h (1 Bft) 100,00 %
21/05/2019 05:00 8,3 C 95 % 1015,1 hPa 0,0 mm 1,1 km/h (1 Bft) NO 306 0 min 0 min 0,000 mm 0,0 UV-I 0 W/m 7,5 C 8,3 C 3,5 km/h (1 Bft) 100,00 %
21/05/2019 04:59 8,3 C 95 % 1015,1 hPa 0,0 mm 0,8 km/h (0 Bft) NO 306 0 min 0 min 0,000 mm 0,0 UV-I 0 W/m 7,5 C 8,3 C 3,5 km/h (1 Bft) 100,00 %
21/05/2019 04:58 8,3 C 95 % 1015,1 hPa 0,0 mm 0,1 km/h (0 Bft) O-NO 302 0 min 0 min 0,000 mm 0,0 UV-I 0 W/m 7,5 C 8,3 C 1,8 km/h (1 Bft) 100,00 %
21/05/2019 04:57 8,3 C 95 % 1015,0 hPa 0,0 mm 0,7 km/h (0 Bft) O-NO 302 0 min 0 min 0,000 mm 0,0 UV-I 0 W/m 7,5 C 8,3 C 1,8 km/h (1 Bft) 100,00 %
21/05/2019 04:56 8,3 C 95 % 1015,0 hPa 0,0 mm 2,0 km/h (1 Bft) O-NO 302 0 min 0 min 0,000 mm 0,0 UV-I 0 W/m 7,5 C 8,3 C 3,5 km/h (1 Bft) 95,83 %
21/05/2019 04:55 8,3 C 95 % 1015,0 hPa 0,0 mm 1,9 km/h (1 Bft) NO 323 0 min 0 min 0,000 mm 0,0 UV-I 0 W/m 7,5 C 8,3 C 3,5 km/h (1 Bft) 100,00 %
21/05/2019 04:54 8,3 C 95 % 1015,0 hPa 0,0 mm 1,0 km/h (0 Bft) NO 323 0 min 0 min 0,000 mm 0,0 UV-I 0 W/m 7,5 C 8,3 C 3,5 km/h (1 Bft) 100,00 %
21/05/2019 04:53 8,3 C 95 % 1015,0 hPa 0,0 mm 0,0 km/h (0 Bft) O-NO 300 0 min 0 min 0,000 mm 0,0 UV-I 0 W/m 7,5 C 8,3 C 0,0 km/h (0 Bft) 92,86 %
21/05/2019 04:52 8,3 C 95 % 1015,0 hPa 0,0 mm 0,0 km/h (0 Bft) O-NO 300 0 min 0 min 0,000 mm 0,0 UV-I 0 W/m 7,5 C 8,3 C 0,0 km/h (0 Bft) 100,00 %
21/05/2019 04:51 8,3 C 95 % 1015,0 hPa 0,0 mm 1,5 km/h (1 Bft) O-NO 300 0 min 0 min 0,000 mm 0,0 UV-I 0 W/m 7,5 C 8,3 C 3,5 km/h (1 Bft) 93,33 %
21/05/2019 04:50 8,3 C 95 % 1015,0 hPa 0,0 mm 0,6 km/h (0 Bft) O-NO 299 0 min 0 min 0,000 mm 0,0 UV-I 0 W/m 7,5 C 8,3 C 1,8 km/h (1 Bft) 100,00 %
21/05/2019 04:49 8,4 C 95 % 1015,0 hPa 0,0 mm 1,0 km/h (0 Bft) O-NO 299 0 min 0 min 0,000 mm 0,0 UV-I 0 W/m 7,6 C 8,4 C 1,8 km/h (1 Bft) 96,15 %
21/05/2019 04:48 8,4 C 95 % 1015,1 hPa 0,0 mm 0,0 km/h (0 Bft) O-NO 300 0 min 0 min 0,000 mm 0,0 UV-I 0 W/m 7,6 C 8,4 C 0,0 km/h (0 Bft) 100,00 %
21/05/2019 04:47 8,4 C 95 % 1015,1 hPa 0,0 mm 0,7 km/h (0 Bft) O-NO 300 0 min 0 min 0,000 mm 0,0 UV-I 0 W/m 7,6 C 8,4 C 1,8 km/h (1 Bft) 91,67 %
21/05/2019 04:46 8,4 C 95 % 1015,1 hPa 0,0 mm 1,2 km/h (1 Bft) O-NO 300 0 min 0 min 0,000 mm 0,0 UV-I 0 W/m 7,6 C 8,4 C 3,5 km/h (1 Bft) 95,83 %
21/05/2019 04:45 8,4 C 95 % 1015,1 hPa 0,0 mm 1,5 km/h (1 Bft) O-NO 302 0 min 0 min 0,000 mm 0,0 UV-I 0 W/m 7,6 C 8,4 C 3,5 km/h (1 Bft) 100,00 %
21/05/2019 04:44 8,4 C 95 % 1015,1 hPa 0,0 mm 0,7 km/h (0 Bft) O-NO 302 0 min 0 min 0,000 mm 0,0 UV-I 0 W/m 7,6 C 8,4 C 1,8 km/h (1 Bft) 100,00 %
21/05/2019 04:43 8,5 C 95 % 1015,1 hPa 0,0 mm 1,7 km/h (1 Bft) O-NO 302 0 min 0 min 0,000 mm 0,0 UV-I 0 W/m 7,7 C 8,5 C 3,5 km/h (1 Bft) 100,00 %
21/05/2019 04:42 8,5 C 95 % 1015,1 hPa 0,0 mm 0,5 km/h (0 Bft) O-NO 302 0 min 0 min 0,000 mm 0,0 UV-I 0 W/m 7,7 C 8,5 C 3,5 km/h (1 Bft) 95,83 %
21/05/2019 04:41 8,5 C 95 % 1015,1 hPa 0,0 mm 0,1 km/h (0 Bft) O-NO 302 0 min 0 min 0,000 mm 0,0 UV-I 0 W/m 7,7 C 8,5 C 1,8 km/h (1 Bft) 100,00 %
21/05/2019 04:40 8,6 C 95 % 1015,0 hPa 0,0 mm 0,0 km/h (0 Bft) O-NO 302 0 min 0 min 0,000 mm 0,0 UV-I 0 W/m 7,8 C 8,6 C 0,0 km/h (0 Bft) 100,00 %
21/05/2019 04:39 8,6 C 95 % 1015,1 hPa 0,0 mm 1,1 km/h (1 Bft) O-NO 302 0 min 0 min 0,000 mm 0,0 UV-I 0 W/m 7,8 C 8,6 C 3,5 km/h (1 Bft) 100,00 %
21/05/2019 04:38 8,6 C 95 % 1015,1 hPa 0,0 mm 1,3 km/h (1 Bft) O-NO 302 0 min 0 min 0,000 mm 0,0 UV-I 0 W/m 7,8 C 8,6 C 1,8 km/h (1 Bft) 100,00 %
21/05/2019 04:37 8,6 C 95 % 1015,1 hPa 0,0 mm 0,8 km/h (0 Bft) O-NO 302 0 min 0 min 0,000 mm 0,0 UV-I 0 W/m 7,8 C 8,6 C 3,5 km/h (1 Bft) 100,00 %
21/05/2019 04:36 8,6 C 95 % 1015,1 hPa 0,0 mm 0,5 km/h (0 Bft) O-NO 302 0 min 0 min 0,000 mm 0,0 UV-I 0 W/m 7,8 C 8,6 C 1,8 km/h (1 Bft) 100,00 %
21/05/2019 04:35 8,6 C 95 % 1015,1 hPa 0,0 mm 0,1 km/h (0 Bft) O-NO 302 0 min 0 min 0,000 mm 0,0 UV-I 0 W/m 7,8 C 8,6 C 1,8 km/h (1 Bft) 100,00 %
21/05/2019 04:34 8,6 C 95 % 1015,1 hPa 0,0 mm 0,2 km/h (0 Bft) O-NO 302 0 min 0 min 0,000 mm 0,0 UV-I 0 W/m 7,8 C 8,6 C 1,8 km/h (1 Bft) 100,00 %
21/05/2019 04:33 8,7 C 95 % 1015,1 hPa 0,0 mm 2,0 km/h (1 Bft) O-NO 302 0 min 0 min 0,000 mm 0,0 UV-I 0 W/m 7,9 C 8,7 C 3,5 km/h (1 Bft) 100,00 %
21/05/2019 04:32 8,7 C 95 % 1015,1 hPa 0,0 mm 1,9 km/h (1 Bft) O-NO 302 0 min 0 min 0,000 mm 0,0 UV-I 0 W/m 7,9 C 8,7 C 5,3 km/h (1 Bft) 100,00 %
21/05/2019 04:31 8,7 C 95 % 1015,1 hPa 0,0 mm 3,3 km/h (1 Bft) O-NO 302 0 min 0 min 0,000 mm 0,0 UV-I 0 W/m 7,9 C 8,7 C 5,3 km/h (1 Bft) 100,00 %
21/05/2019 04:30 8,7 C 95 % 1015,1 hPa 0,0 mm 1,6 km/h (1 Bft) NO 313 0 min 0 min 0,000 mm 0,0 UV-I 0 W/m 7,9 C 8,7 C 3,5 km/h (1 Bft) 100,00 %
21/05/2019 04:29 8,7 C 95 % 1015,1 hPa 0,0 mm 2,7 km/h (1 Bft) NO 314 0 min 0 min 0,000 mm 0,0 UV-I 0 W/m 7,9 C 8,7 C 5,3 km/h (1 Bft) 96,43 %
21/05/2019 04:28 8,7 C 95 % 1015,1 hPa 0,0 mm 1,2 km/h (1 Bft) O-NO 302 0 min 0 min 0,000 mm 0,0 UV-I 0 W/m 7,9 C 8,7 C 3,5 km/h (1 Bft) 100,00 %
21/05/2019 04:27 8,7 C 95 % 1015,1 hPa 0,0 mm 0,3 km/h (0 Bft) O 261 0 min 0 min 0,000 mm 0,0 UV-I 0 W/m 7,9 C 8,7 C 1,8 km/h (1 Bft) 100,00 %
21/05/2019 04:26 8,7 C 95 % 1015,1 hPa 0,0 mm 1,1 km/h (1 Bft) O 261 0 min 0 min 0,000 mm 0,0 UV-I 0 W/m 7,9 C 8,7 C 1,8 km/h (1 Bft) 100,00 %
21/05/2019 04:25 8,7 C 95 % 1015,1 hPa 0,0 mm 0,6 km/h (0 Bft) O 260 0 min 0 min 0,000 mm 0,0 UV-I 0 W/m 7,9 C 8,7 C 3,5 km/h (1 Bft) 100,00 %
21/05/2019 04:24 8,7 C 95 % 1015,1 hPa 0,0 mm 1,3 km/h (1 Bft) O 260 0 min 0 min 0,000 mm 0,0 UV-I 0 W/m 7,9 C 8,7 C 3,5 km/h (1 Bft) 100,00 %
21/05/2019 04:23 8,7 C 95 % 1015,1 hPa 0,0 mm 3,0 km/h (1 Bft) O 261 0 min 0 min 0,000 mm 0,0 UV-I 0 W/m 7,9 C 8,7 C 7,1 km/h (2 Bft) 100,00 %
21/05/2019 04:22 8,7 C 95 % 1015,0 hPa 0,0 mm 1,7 km/h (1 Bft) O-SO 242 0 min 0 min 0,000 mm 0,0 UV-I 0 W/m 7,9 C 8,7 C 3,5 km/h (1 Bft) 100,00 %
21/05/2019 04:21 8,7 C 95 % 1015,1 hPa 0,0 mm 0,1 km/h (0 Bft) O-NO 284 0 min 0 min 0,000 mm 0,0 UV-I 0 W/m 7,9 C 8,7 C 1,8 km/h (1 Bft) 96,00 %
21/05/2019 04:20 8,7 C 95 % 1015,1 hPa 0,0 mm 0,0 km/h (0 Bft) O-NO 284 0 min 0 min 0,000 mm 0,0 UV-I 0 W/m 7,9 C 8,7 C 0,0 km/h (0 Bft) 100,00 %
21/05/2019 04:19 8,7 C 95 % 1015,1 hPa 0,0 mm 0,0 km/h (0 Bft) O-NO 284 0 min 0 min 0,000 mm 0,0 UV-I 0 W/m 7,9 C 8,7 C 0,0 km/h (0 Bft) 96,00 %
21/05/2019 04:18 8,7 C 95 % 1015,0 hPa 0,0 mm 0,2 km/h (0 Bft) O-NO 284 0 min 0 min 0,000 mm 0,0 UV-I 0 W/m 7,9 C 8,7 C 1,8 km/h (1 Bft) 100,00 %
21/05/2019 04:17 8,7 C 95 % 1015,0 hPa 0,0 mm 0,6 km/h (0 Bft) O-NO 284 0 min 0 min 0,000 mm 0,0 UV-I 0 W/m 7,9 C 8,7 C 3,5 km/h (1 Bft) 95,65 %
21/05/2019 04:16 8,7 C 95 % 1015,0 hPa 0,0 mm 0,0 km/h (0 Bft) O-NO 284 0 min 0 min 0,000 mm 0,0 UV-I 0 W/m 7,9 C 8,7 C 0,0 km/h (0 Bft) 100,00 %
21/05/2019 04:15 8,7 C 95 % 1015,0 hPa 0,0 mm 0,0 km/h (0 Bft) O-NO 284 0 min 0 min 0,000 mm 0,0 UV-I 0 W/m 7,9 C 8,7 C 0,0 km/h (0 Bft) 95,83 %
21/05/2019 04:14 8,7 C 95 % 1014,9 hPa 0,0 mm 0,0 km/h (0 Bft) O-NO 284 0 min 0 min 0,000 mm 0,0 UV-I 0 W/m 7,9 C 8,7 C 0,0 km/h (0 Bft) 100,00 %
21/05/2019 04:13 8,6 C 95 % 1015,0 hPa 0,0 mm 0,0 km/h (0 Bft) O-NO 284 0 min 0 min 0,000 mm 0,0 UV-I 0 W/m 7,8 C 8,6 C 0,0 km/h (0 Bft) 91,67 %
21/05/2019 04:12 8,7 C 95 % 1015,0 hPa 0,0 mm 0,0 km/h (0 Bft) O-NO 284 0 min 0 min 0,000 mm 0,0 UV-I 0 W/m 7,9 C 8,7 C 0,0 km/h (0 Bft) 100,00 %
21/05/2019 04:11 8,6 C 95 % 1015,0 hPa 0,0 mm 0,0 km/h (0 Bft) O-NO 284 0 min 0 min 0,000 mm 0,0 UV-I 0 W/m 7,8 C 8,6 C 0,0 km/h (0 Bft) 96,30 %
21/05/2019 04:10 8,6 C 95 % 1014,9 hPa 0,0 mm 0,0 km/h (0 Bft) O-NO 284 0 min 0 min 0,000 mm 0,0 UV-I 0 W/m 7,8 C 8,6 C 0,0 km/h (0 Bft) 91,67 %
21/05/2019 04:09 8,6 C 95 % 1015,0 hPa 0,0 mm 0,0 km/h (0 Bft) O-NO 284 0 min 0 min 0,000 mm 0,0 UV-I 0 W/m 7,8 C 8,6 C 0,0 km/h (0 Bft) 100,00 %
21/05/2019 04:08 8,6 C 95 % 1015,0 hPa 0,0 mm 0,0 km/h (0 Bft) O-NO 292 0 min 0 min 0,000 mm 0,0 UV-I 0 W/m 7,8 C 8,6 C 0,0 km/h (0 Bft) 100,00 %
21/05/2019 04:07 8,5 C 95 % 1015,0 hPa 0,0 mm 0,0 km/h (0 Bft) O-NO 292 0 min 0 min 0,000 mm 0,0 UV-I 0 W/m 7,7 C 8,5 C 0,0 km/h (0 Bft) 100,00 %
21/05/2019 04:06 8,5 C 95 % 1015,0 hPa 0,0 mm 0,0 km/h (0 Bft) O-NO 292 0 min 0 min 0,000 mm 0,0 UV-I 0 W/m 7,7 C 8,5 C 0,0 km/h (0 Bft) 100,00 %
21/05/2019 04:05 8,5 C 95 % 1015,0 hPa 0,0 mm 0,0 km/h (0 Bft) O-NO 292 0 min 0 min 0,000 mm 0,0 UV-I 0 W/m 7,7 C 8,5 C 0,0 km/h (0 Bft) 100,00 %
21/05/2019 04:04 8,5 C 95 % 1014,9 hPa 0,0 mm 0,0 km/h (0 Bft) O-NO 292 0 min 0 min 0,000 mm 0,0 UV-I 0 W/m 7,7 C 8,5 C 0,0 km/h (0 Bft) 100,00 %
21/05/2019 04:03 8,5 C 95 % 1014,9 hPa 0,0 mm 0,0 km/h (0 Bft) O-NO 292 0 min 0 min 0,000 mm 0,0 UV-I 0 W/m 7,7 C 8,5 C 0,0 km/h (0 Bft) 96,55 %
21/05/2019 04:02 8,5 C 95 % 1015,0 hPa 0,0 mm 0,0 km/h (0 Bft) O-NO 292 0 min 0 min 0,000 mm 0,0 UV-I 0 W/m 7,7 C 8,5 C 0,0 km/h (0 Bft) 100,00 %
21/05/2019 04:01 8,4 C 95 % 1015,0 hPa 0,0 mm 0,0 km/h (0 Bft) O-NO 292 0 min 0 min 0,000 mm 0,0 UV-I 0 W/m 7,6 C 8,4 C 0,0 km/h (0 Bft) 100,00 %
21/05/2019 04:00 8,5 C 95 % 1014,9 hPa 0,0 mm 0,0 km/h (0 Bft) O-NO 292 0 min 0 min 0,000 mm 0,0 UV-I 0 W/m 7,7 C 8,5 C 0,0 km/h (0 Bft) 100,00 %
21/05/2019 03:59 8,4 C 95 % 1014,9 hPa 0,0 mm 0,0 km/h (0 Bft) O-NO 292 0 min 0 min 0,000 mm 0,0 UV-I 0 W/m 7,6 C 8,4 C 0,0 km/h (0 Bft) 95,83 %
21/05/2019 03:58 8,5 C 95 % 1014,9 hPa 0,0 mm 0,0 km/h (0 Bft) O-NO 292 0 min 0 min 0,000 mm 0,0 UV-I 0 W/m 7,7 C 8,5 C 0,0 km/h (0 Bft) 100,00 %
21/05/2019 03:57 8,5 C 95 % 1015,0 hPa 0,0 mm 0,0 km/h (0 Bft) O-NO 291 0 min 0 min 0,000 mm 0,0 UV-I 0 W/m 7,7 C 8,5 C 0,0 km/h (0 Bft) 100,00 %
21/05/2019 03:56 8,5 C 95 % 1015,0 hPa 0,0 mm 0,0 km/h (0 Bft) O-NO 291 0 min 0 min 0,000 mm 0,0 UV-I 0 W/m 7,7 C 8,5 C 0,0 km/h (0 Bft) 100,00 %
21/05/2019 03:55 8,6 C 95 % 1015,0 hPa 0,0 mm 0,0 km/h (0 Bft) O-NO 291 0 min 0 min 0,000 mm 0,0 UV-I 0 W/m 7,8 C 8,6 C 0,0 km/h (0 Bft) 100,00 %
21/05/2019 03:54 8,6 C 94 % 1015,0 hPa 0,0 mm 0,0 km/h (0 Bft) O-NO 291 0 min 0 min 0,000 mm 0,0 UV-I 0 W/m 7,7 C 8,6 C 0,0 km/h (0 Bft) 91,67 %
21/05/2019 03:53 8,6 C 94 % 1014,9 hPa 0,0 mm 0,0 km/h (0 Bft) O-NO 292 0 min 0 min 0,000 mm 0,0 UV-I 0 W/m 7,7 C 8,6 C 0,0 km/h (0 Bft) 100,00 %
21/05/2019 03:52 8,6 C 94 % 1014,9 hPa 0,0 mm 0,0 km/h (0 Bft) O-NO 292 0 min 0 min 0,000 mm 0,0 UV-I 0 W/m 7,7 C 8,6 C 0,0 km/h (0 Bft) 100,00 %
21/05/2019 03:51 8,6 C 94 % 1014,9 hPa 0,0 mm 0,0 km/h (0 Bft) O-NO 296 0 min 0 min 0,000 mm 0,0 UV-I 0 W/m 7,7 C 8,6 C 0,0 km/h (0 Bft) 96,00 %
21/05/2019 03:50 8,6 C 94 % 1015,0 hPa 0,0 mm 0,0 km/h (0 Bft) NO 305 0 min 0 min 0,000 mm 0,0 UV-I 0 W/m 7,7 C 8,6 C 0,0 km/h (0 Bft) 91,67 %
21/05/2019 03:49 8,6 C 94 % 1014,9 hPa 0,0 mm 0,0 km/h (0 Bft) NO 305 0 min 0 min 0,000 mm 0,0 UV-I 0 W/m 7,7 C 8,6 C 0,0 km/h (0 Bft) 100,00 %
21/05/2019 03:48 8,6 C 94 % 1014,9 hPa 0,0 mm 0,0 km/h (0 Bft) NO 305 0 min 0 min 0,000 mm 0,0 UV-I 0 W/m 7,7 C 8,6 C 0,0 km/h (0 Bft) 96,00 %
21/05/2019 03:47 8,6 C 94 % 1014,9 hPa 0,0 mm 0,0 km/h (0 Bft) NO 305 0 min 0 min 0,000 mm 0,0 UV-I 0 W/m 7,7 C 8,6 C 0,0 km/h (0 Bft) 100,00 %
21/05/2019 03:46 8,6 C 94 % 1014,9 hPa 0,0 mm 0,0 km/h (0 Bft) NO 305 0 min 0 min 0,000 mm 0,0 UV-I 0 W/m 7,7 C 8,6 C 0,0 km/h (0 Bft) 100,00 %
21/05/2019 03:45 8,6 C 94 % 1015,0 hPa 0,0 mm 0,0 km/h (0 Bft) NO 305 0 min 0 min 0,000 mm 0,0 UV-I 0 W/m 7,7 C 8,6 C 0,0 km/h (0 Bft) 98,04 %
21/05/2019 03:43 8,7 C 94 % 1014,9 hPa 0,0 mm 0,0 km/h (0 Bft) NO 305 0 min 0 min 0,000 mm 0,0 UV-I 0 W/m 7,8 C 8,7 C 0,0 km/h (0 Bft) 92,86 %
21/05/2019 03:42 8,7 C 94 % 1014,9 hPa 0,0 mm 0,0 km/h (0 Bft) NO 305 0 min 0 min 0,000 mm 0,0 UV-I 0 W/m 7,8 C 8,7 C 0,0 km/h (0 Bft) 100,00 %
21/05/2019 03:41 8,7 C 94 % 1014,9 hPa 0,0 mm 0,0 km/h (0 Bft) NO 305 0 min 0 min 0,000 mm 0,0 UV-I 0 W/m 7,8 C 8,7 C 0,0 km/h (0 Bft) 96,77 %
21/05/2019 03:40 8,8 C 94 % 1014,9 hPa 0,0 mm 0,0 km/h (0 Bft) NO 305 0 min 0 min 0,000 mm 0,0 UV-I 0 W/m 7,9 C 8,8 C 0,0 km/h (0 Bft) 91,67 %
21/05/2019 03:39 8,8 C 94 % 1014,9 hPa 0,0 mm 0,0 km/h (0 Bft) NO 305 0 min 0 min 0,000 mm 0,0 UV-I 0 W/m 7,9 C 8,8 C 0,0 km/h (0 Bft) 95,65 %
21/05/2019 03:38 8,8 C 94 % 1014,9 hPa 0,0 mm 0,0 km/h (0 Bft) NO 305 0 min 0 min 0,000 mm 0,0 UV-I 0 W/m 7,9 C 8,8 C 0,0 km/h (0 Bft) 100,00 %
21/05/2019 03:37 8,9 C 94 % 1014,9 hPa 0,0 mm 0,1 km/h (0 Bft) NO 305 0 min 0 min 0,000 mm 0,0 UV-I 0 W/m 8,0 C 8,9 C 1,8 km/h (1 Bft) 88,00 %
21/05/2019 03:36 8,9 C 94 % 1014,9 hPa 0,0 mm 0,0 km/h (0 Bft) NO 305 0 min 0 min 0,000 mm 0,0 UV-I 0 W/m 8,0 C 8,9 C 0,0 km/h (0 Bft) 95,83 %
21/05/2019 03:35 9,0 C 94 % 1014,9 hPa 0,0 mm 0,0 km/h (0 Bft) NO 305 0 min 0 min 0,000 mm 0,0 UV-I 0 W/m 8,1 C 9,0 C 0,0 km/h (0 Bft) 100,00 %
21/05/2019 03:34 9,0 C 94 % 1014,9 hPa 0,0 mm 0,0 km/h (0 Bft) NO 305 0 min 0 min 0,000 mm 0,0 UV-I 0 W/m 8,1 C 9,0 C 0,0 km/h (0 Bft) 96,43 %
21/05/2019 03:33 9,1 C 94 % 1014,8 hPa 0,0 mm 0,0 km/h (0 Bft) NO 305 0 min 0 min 0,000 mm 0,0 UV-I 0 W/m 8,2 C 9,1 C 0,0 km/h (0 Bft) 100,00 %
21/05/2019 03:32 9,1 C 94 % 1014,8 hPa 0,0 mm 0,1 km/h (0 Bft) NO 305 0 min 0 min 0,000 mm 0,0 UV-I 0 W/m 8,2 C 9,1 C 1,8 km/h (1 Bft) 95,83 %
21/05/2019 03:31 9,1 C 94 % 1014,8 hPa 0,0 mm 0,1 km/h (0 Bft) NO 305 0 min 0 min 0,000 mm 0,0 UV-I 0 W/m 8,2 C 9,1 C 1,8 km/h (1 Bft) 96,00 %
21/05/2019 03:30 9,1 C 94 % 1014,8 hPa 0,0 mm 0,0 km/h (0 Bft) NO 305 0 min 0 min 0,000 mm 0,0 UV-I 0 W/m 8,2 C 9,1 C 0,0 km/h (0 Bft) 95,83 %
21/05/2019 03:29 9,1 C 94 % 1014,8 hPa 0,0 mm 0,0 km/h (0 Bft) NO 305 0 min 0 min 0,000 mm 0,0 UV-I 0 W/m 8,2 C 9,1 C 0,0 km/h (0 Bft) 96,00 %
21/05/2019 03:28 9,1 C 94 % 1014,8 hPa 0,0 mm 0,1 km/h (0 Bft) NO 305 0 min 0 min 0,000 mm 0,0 UV-I 0 W/m 8,2 C 9,1 C 1,8 km/h (1 Bft) 100,00 %
21/05/2019 03:27 9,1 C 94 % 1014,8 hPa 0,0 mm 0,2 km/h (0 Bft) NO 305 0 min 0 min 0,000 mm 0,0 UV-I 0 W/m 8,2 C 9,1 C 1,8 km/h (1 Bft) 100,00 %
21/05/2019 03:26 9,1 C 94 % 1014,8 hPa 0,0 mm 0,0 km/h (0 Bft) NO 305 0 min 0 min 0,000 mm 0,0 UV-I 0 W/m 8,2 C 9,1 C 0,0 km/h (0 Bft) 95,83 %
21/05/2019 03:25 9,2 C 93 % 1014,8 hPa 0,0 mm 0,0 km/h (0 Bft) NO 305 0 min 0 min 0,000 mm 0,0 UV-I 0 W/m 8,1 C 9,2 C 0,0 km/h (0 Bft) 94,12 %
21/05/2019 03:24 9,2 C 93 % 1014,8 hPa 0,0 mm 0,5 km/h (0 Bft) NO 305 0 min 0 min 0,000 mm 0,0 UV-I 0 W/m 8,1 C 9,2 C 1,8 km/h (1 Bft) 100,00 %
21/05/2019 03:23 9,2 C 93 % 1014,8 hPa 0,0 mm 0,8 km/h (0 Bft) NO 305 0 min 0 min 0,000 mm 0,0 UV-I 0 W/m 8,1 C 9,2 C 3,5 km/h (1 Bft) 91,67 %
21/05/2019 03:22 9,2 C 93 % 1014,8 hPa 0,0 mm 0,0 km/h (0 Bft) NO 305 0 min 0 min 0,000 mm 0,0 UV-I 0 W/m 8,1 C 9,2 C 0,0 km/h (0 Bft) 96,00 %
21/05/2019 03:21 9,3 C 93 % 1014,8 hPa 0,0 mm 0,1 km/h (0 Bft) NO 305 0 min 0 min 0,000 mm 0,0 UV-I 0 W/m 8,2 C 9,3 C 1,8 km/h (1 Bft) 91,67 %
21/05/2019 03:20 9,3 C 93 % 1014,8 hPa 0,0 mm 1,0 km/h (0 Bft) NO 305 0 min 0 min 0,000 mm 0,0 UV-I 0 W/m 8,2 C 9,3 C 3,5 km/h (1 Bft) 100,00 %
21/05/2019 03:19 9,3 C 93 % 1014,8 hPa 0,0 mm 0,0 km/h (0 Bft) NO 305 0 min 0 min 0,000 mm 0,0 UV-I 0 W/m 8,2 C 9,3 C 0,0 km/h (0 Bft) 91,67 %
21/05/2019 03:18 9,4 C 93 % 1014,8 hPa 0,0 mm 0,1 km/h (0 Bft) NO 305 0 min 0 min 0,000 mm 0,0 UV-I 0 W/m 8,3 C 9,4 C 1,8 km/h (1 Bft) 95,83 %
21/05/2019 03:17 9,4 C 93 % 1014,8 hPa 0,0 mm 0,0 km/h (0 Bft) NO 305 0 min 0 min 0,000 mm 0,0 UV-I 0 W/m 8,3 C 9,4 C 0,0 km/h (0 Bft) 92,00 %
21/05/2019 03:16 9,4 C 93 % 1014,8 hPa 0,0 mm 0,0 km/h (0 Bft) NO 305 0 min 0 min 0,000 mm 0,0 UV-I 0 W/m 8,3 C 9,4 C 0,0 km/h (0 Bft) 100,00 %
21/05/2019 03:15 9,5 C 93 % 1014,8 hPa 0,0 mm 0,0 km/h (0 Bft) NO 305 0 min 0 min 0,000 mm 0,0 UV-I 0 W/m 8,4 C 9,5 C 0,0 km/h (0 Bft) 95,83 %
21/05/2019 03:14 9,6 C 93 % 1014,8 hPa 0,0 mm 0,0 km/h (0 Bft) NO 305 0 min 0 min 0,000 mm 0,0 UV-I 0 W/m 8,5 C 9,6 C 0,0 km/h (0 Bft) 100,00 %
21/05/2019 03:13 9,6 C 93 % 1014,7 hPa 0,0 mm 0,5 km/h (0 Bft) NO 305 0 min 0 min 0,000 mm 0,0 UV-I 0 W/m 8,5 C 9,6 C 1,8 km/h (1 Bft) 92,00 %
21/05/2019 03:12 9,6 C 93 % 1014,7 hPa 0,0 mm 0,8 km/h (0 Bft) NO 305 0 min 0 min 0,000 mm 0,0 UV-I 0 W/m 8,5 C 9,6 C 3,5 km/h (1 Bft) 100,00 %
21/05/2019 03:11 9,6 C 93 % 1014,7 hPa 0,0 mm 0,3 km/h (0 Bft) NO 305 0 min 0 min 0,000 mm 0,0 UV-I 0 W/m 8,5 C 9,6 C 1,8 km/h (1 Bft) 95,83 %
21/05/2019 03:10 9,6 C 93 % 1014,7 hPa 0,0 mm 0,0 km/h (0 Bft) NO 305 0 min 0 min 0,000 mm 0,0 UV-I 0 W/m 8,5 C 9,6 C 0,0 km/h (0 Bft) 96,00 %
21/05/2019 03:09 9,6 C 93 % 1014,7 hPa 0,0 mm 0,0 km/h (0 Bft) NO 305 0 min 0 min 0,000 mm 0,0 UV-I 0 W/m 8,5 C 9,6 C 0,0 km/h (0 Bft) 95,83 %
21/05/2019 03:08 9,6 C 93 % 1014,7 hPa 0,0 mm 0,0 km/h (0 Bft) NO 305 0 min 0 min 0,000 mm 0,0 UV-I 0 W/m 8,5 C 9,6 C 0,0 km/h (0 Bft) 96,00 %
21/05/2019 03:07 9,6 C 93 % 1014,7 hPa 0,0 mm 1,6 km/h (1 Bft) NO 305 0 min 0 min 0,000 mm 0,0 UV-I 0 W/m 8,5 C 9,6 C 3,5 km/h (1 Bft) 95,83 %
21/05/2019 03:06 9,6 C 93 % 1014,6 hPa 0,0 mm 1,8 km/h (1 Bft) NO 310 0 min 0 min 0,000 mm 0,0 UV-I 0 W/m 8,5 C 9,6 C 5,3 km/h (1 Bft) 88,89 %
21/05/2019 03:05 9,6 C 93 % 1014,7 hPa 0,0 mm 0,5 km/h (0 Bft) O-NO 298 0 min 0 min 0,000 mm 0,0 UV-I 0 W/m 8,5 C 9,6 C 1,8 km/h (1 Bft) 93,33 %
21/05/2019 03:04 9,6 C 93 % 1014,6 hPa 0,0 mm 0,9 km/h (0 Bft) O-NO 298 0 min 0 min 0,000 mm 0,0 UV-I 0 W/m 8,5 C 9,6 C 3,5 km/h (1 Bft) 83,33 %
21/05/2019 03:03 9,6 C 93 % 1014,7 hPa 0,0 mm 0,0 km/h (0 Bft) O-SO 254 0 min 0 min 0,000 mm 0,0 UV-I 0 W/m 8,5 C 9,6 C 0,0 km/h (0 Bft) 96,00 %
21/05/2019 03:02 9,6 C 93 % 1014,7 hPa 0,0 mm 0,8 km/h (0 Bft) O-SO 254 0 min 0 min 0,000 mm 0,0 UV-I 0 W/m 8,5 C 9,6 C 1,8 km/h (1 Bft) 95,83 %
21/05/2019 03:01 9,6 C 93 % 1014,6 hPa 0,0 mm 1,5 km/h (1 Bft) O-SO 254 0 min 0 min 0,000 mm 0,0 UV-I 0 W/m 8,5 C 9,6 C 3,5 km/h (1 Bft) 96,30 %
21/05/2019 03:00 9,6 C 93 % 1014,6 hPa 0,0 mm 0,5 km/h (0 Bft) O-SO 252 0 min 0 min 0,000 mm 0,0 UV-I 0 W/m 8,5 C 9,6 C 1,8 km/h (1 Bft) 100,00 %
21/05/2019 02:59 9,6 C 94 % 1014,6 hPa 0,0 mm 1,7 km/h (1 Bft) O-SO 252 0 min 0 min 0,000 mm 0,0 UV-I 0 W/m 8,7 C 9,6 C 3,5 km/h (1 Bft) 91,67 %
21/05/2019 02:58 9,6 C 94 % 1014,6 hPa 0,0 mm 0,9 km/h (0 Bft) O-SO 254 0 min 0 min 0,000 mm 0,0 UV-I 0 W/m 8,7 C 9,6 C 3,5 km/h (1 Bft) 100,00 %
21/05/2019 02:57 9,6 C 94 % 1014,6 hPa 0,0 mm 0,2 km/h (0 Bft) O-SO 254 0 min 0 min 0,000 mm 0,0 UV-I 0 W/m 8,7 C 9,6 C 1,8 km/h (1 Bft) 91,67 %
21/05/2019 02:56 9,6 C 94 % 1014,6 hPa 0,0 mm 0,5 km/h (0 Bft) O-SO 254 0 min 0 min 0,000 mm 0,0 UV-I 0 W/m 8,7 C 9,6 C 1,8 km/h (1 Bft) 100,00 %
21/05/2019 02:55 9,5 C 94 % 1014,7 hPa 0,0 mm 4,1 km/h (1 Bft) O-SO 254 0 min 0 min 0,000 mm 0,0 UV-I 0 W/m 8,6 C 9,5 C 5,3 km/h (1 Bft) 96,30 %
21/05/2019 02:54 9,5 C 94 % 1014,6 hPa 0,0 mm 3,8 km/h (1 Bft) O 259 0 min 0 min 0,000 mm 0,0 UV-I 0 W/m 8,6 C 9,5 C 7,1 km/h (2 Bft) 95,83 %
21/05/2019 02:53 9,5 C 94 % 1014,6 hPa 0,0 mm 4,0 km/h (1 Bft) O 267 0 min 0 min 0,000 mm 0,0 UV-I 0 W/m 8,6 C 9,5 C 5,3 km/h (1 Bft) 100,00 %
21/05/2019 02:52 9,4 C 94 % 1014,6 hPa 0,0 mm 2,4 km/h (1 Bft) O 275 0 min 0 min 0,000 mm 0,0 UV-I 0 W/m 8,5 C 9,4 C 7,1 km/h (2 Bft) 91,67 %
21/05/2019 02:51 9,4 C 93 % 1014,7 hPa 0,0 mm 2,5 km/h (1 Bft) O-SO 254 0 min 0 min 0,000 mm 0,0 UV-I 0 W/m 8,3 C 9,4 C 5,3 km/h (1 Bft) 100,00 %
21/05/2019 02:50 9,4 C 93 % 1014,6 hPa 0,0 mm 1,7 km/h (1 Bft) O 268 0 min 0 min 0,000 mm 0,0 UV-I 0 W/m 8,3 C 9,4 C 3,5 km/h (1 Bft) 91,67 %
21/05/2019 02:49 9,4 C 93 % 1014,7 hPa 0,0 mm 2,7 km/h (1 Bft) O 271 0 min 0 min 0,000 mm 0,0 UV-I 0 W/m 8,3 C 9,4 C 3,5 km/h (1 Bft) 100,00 %
21/05/2019 02:48 9,4 C 93 % 1014,7 hPa 0,0 mm 3,4 km/h (1 Bft) O 261 0 min 0 min 0,000 mm 0,0 UV-I 0 W/m 8,3 C 9,4 C 5,3 km/h (1 Bft) 95,83 %
21/05/2019 02:47 9,4 C 93 % 1014,7 hPa 0,0 mm 2,2 km/h (1 Bft) O 260 0 min 0 min 0,000 mm 0,0 UV-I 0 W/m 8,3 C 9,4 C 3,5 km/h (1 Bft) 100,00 %
21/05/2019 02:46 9,5 C 93 % 1014,6 hPa 0,0 mm 2,1 km/h (1 Bft) O 260 0 min 0 min 0,000 mm 0,0 UV-I 0 W/m 8,4 C 9,5 C 3,5 km/h (1 Bft) 96,00 %
21/05/2019 02:45 9,5 C 93 % 1014,6 hPa 0,0 mm 3,3 km/h (1 Bft) O 260 0 min 0 min 0,000 mm 0,0 UV-I 0 W/m 8,4 C 9,5 C 5,3 km/h (1 Bft) 100,00 %
21/05/2019 02:44 9,4 C 93 % 1014,6 hPa 0,0 mm 3,1 km/h (1 Bft) O 271 0 min 0 min 0,000 mm 0,0 UV-I 0 W/m 8,3 C 9,4 C 5,3 km/h (1 Bft) 100,00 %
21/05/2019 02:43 9,5 C 93 % 1014,6 hPa 0,0 mm 2,3 km/h (1 Bft) O 263 0 min 0 min 0,000 mm 0,0 UV-I 0 W/m 8,4 C 9,5 C 5,3 km/h (1 Bft) 100,00 %
21/05/2019 02:42 9,5 C 93 % 1014,6 hPa 0,0 mm 1,2 km/h (1 Bft) O 265 0 min 0 min 0,000 mm 0,0 UV-I 0 W/m 8,4 C 9,5 C 1,8 km/h (1 Bft) 100,00 %
21/05/2019 02:41 9,5 C 93 % 1014,6 hPa 0,0 mm 0,8 km/h (0 Bft) O 265 0 min 0 min 0,000 mm 0,0 UV-I 0 W/m 8,4 C 9,5 C 3,5 km/h (1 Bft) 100,00 %
21/05/2019 02:40 9,5 C 93 % 1014,6 hPa 0,0 mm 0,0 km/h (0 Bft) O-NO 284 0 min 0 min 0,000 mm 0,0 UV-I 0 W/m 8,4 C 9,5 C 0,0 km/h (0 Bft) 100,00 %
21/05/2019 02:39 9,5 C 93 % 1014,6 hPa 0,0 mm 0,0 km/h (0 Bft) O-NO 284 0 min 0 min 0,000 mm 0,0 UV-I 0 W/m 8,4 C 9,5 C 0,0 km/h (0 Bft) 96,00 %
21/05/2019 02:38 9,6 C 93 % 1014,6 hPa 0,0 mm 0,3 km/h (0 Bft) O-NO 284 0 min 0 min 0,000 mm 0,0 UV-I 0 W/m 8,5 C 9,6 C 1,8 km/h (1 Bft) 100,00 %
21/05/2019 02:37 9,6 C 93 % 1014,6 hPa 0,0 mm 2,4 km/h (1 Bft) O-NO 284 0 min 0 min 0,000 mm 0,0 UV-I 0 W/m 8,5 C 9,6 C 3,5 km/h (1 Bft) 100,00 %
21/05/2019 02:36 9,6 C 93 % 1014,6 hPa 0,0 mm 0,6 km/h (0 Bft) O-SO 257 0 min 0 min 0,000 mm 0,0 UV-I 0 W/m 8,5 C 9,6 C 3,5 km/h (1 Bft) 100,00 %
21/05/2019 02:35 9,6 C 93 % 1014,6 hPa 0,0 mm 0,7 km/h (0 Bft) O 271 0 min 0 min 0,000 mm 0,0 UV-I 0 W/m 8,5 C 9,6 C 3,5 km/h (1 Bft) 96,15 %
21/05/2019 02:34 9,6 C 93 % 1014,6 hPa 0,0 mm 0,0 km/h (0 Bft) O-NO 289 0 min 0 min 0,000 mm 0,0 UV-I 0 W/m 8,5 C 9,6 C 0,0 km/h (0 Bft) 96,77 %
21/05/2019 02:33 9,6 C 93 % 1014,7 hPa 0,0 mm 0,0 km/h (0 Bft) O-NO 288 0 min 0 min 0,000 mm 0,0 UV-I 0 W/m 8,5 C 9,6 C 0,0 km/h (0 Bft) 100,00 %
21/05/2019 02:32 9,6 C 93 % 1014,7 hPa 0,0 mm 0,0 km/h (0 Bft) O-NO 298 0 min 0 min 0,000 mm 0,0 UV-I 0 W/m 8,5 C 9,6 C 0,0 km/h (0 Bft) 100,00 %
21/05/2019 02:31 9,7 C 93 % 1014,7 hPa 0,0 mm 0,0 km/h (0 Bft) O-NO 298 0 min 0 min 0,000 mm 0,0 UV-I 0 W/m 8,6 C 9,7 C 0,0 km/h (0 Bft) 95,83 %
21/05/2019 02:30 9,7 C 93 % 1014,7 hPa 0,0 mm 0,0 km/h (0 Bft) O-NO 298 0 min 0 min 0,000 mm 0,0 UV-I 0 W/m 8,6 C 9,7 C 0,0 km/h (0 Bft) 92,00 %
21/05/2019 02:29 9,7 C 93 % 1014,7 hPa 0,0 mm 0,0 km/h (0 Bft) O-NO 298 0 min 0 min 0,000 mm 0,0 UV-I 0 W/m 8,6 C 9,7 C 0,0 km/h (0 Bft) 100,00 %
21/05/2019 02:28 9,7 C 93 % 1014,7 hPa 0,0 mm 0,8 km/h (0 Bft) O-NO 298 0 min 0 min 0,000 mm 0,0 UV-I 0 W/m 8,6 C 9,7 C 3,5 km/h (1 Bft) 95,83 %
21/05/2019 02:27 9,8 C 93 % 1014,7 hPa 0,0 mm 0,2 km/h (0 Bft) O-NO 298 0 min 0 min 0,000 mm 0,0 UV-I 0 W/m 8,7 C 9,8 C 1,8 km/h (1 Bft) 95,83 %
21/05/2019 02:26 9,8 C 93 % 1014,7 hPa 0,0 mm 0,0 km/h (0 Bft) O-NO 298 0 min 0 min 0,000 mm 0,0 UV-I 0 W/m 8,7 C 9,8 C 0,0 km/h (0 Bft) 100,00 %
21/05/2019 02:25 9,8 C 93 % 1014,7 hPa 0,0 mm 0,0 km/h (0 Bft) O-NO 298 0 min 0 min 0,000 mm 0,0 UV-I 0 W/m 8,7 C 9,8 C 0,0 km/h (0 Bft) 100,00 %
21/05/2019 02:24 9,8 C 93 % 1014,7 hPa 0,0 mm 0,0 km/h (0 Bft) O-NO 298 0 min 0 min 0,000 mm 0,0 UV-I 0 W/m 8,7 C 9,8 C 0,0 km/h (0 Bft) 100,00 %
21/05/2019 02:23 9,8 C 93 % 1014,8 hPa 0,0 mm 0,6 km/h (0 Bft) O-NO 298 0 min 0 min 0,000 mm 0,0 UV-I 0 W/m 8,7 C 9,8 C 3,5 km/h (1 Bft) 100,00 %
21/05/2019 02:22 9,9 C 93 % 1014,7 hPa 0,0 mm 2,8 km/h (1 Bft) O-NO 296 0 min 0 min 0,000 mm 0,0 UV-I 0 W/m 8,8 C 9,9 C 5,3 km/h (1 Bft) 100,00 %
21/05/2019 02:21 9,9 C 93 % 1014,7 hPa 0,0 mm 2,4 km/h (1 Bft) NO 305 0 min 0 min 0,000 mm 0,0 UV-I 0 W/m 8,8 C 9,9 C 5,3 km/h (1 Bft) 100,00 %
21/05/2019 02:20 9,9 C 94 % 1014,7 hPa 0,0 mm 2,4 km/h (1 Bft) O-NO 302 0 min 0 min 0,000 mm 0,0 UV-I 0 W/m 9,0 C 9,9 C 5,3 km/h (1 Bft) 96,00 %
21/05/2019 02:19 10,0 C 94 % 1014,7 hPa 0,0 mm 3,3 km/h (1 Bft) NO 304 0 min 0 min 0,000 mm 0,0 UV-I 0 W/m 9,1 C 10,0 C 5,3 km/h (1 Bft) 100,00 %
21/05/2019 02:18 10,0 C 94 % 1014,7 hPa 0,0 mm 3,6 km/h (1 Bft) NO 304 0 min 0 min 0,000 mm 0,0 UV-I 0 W/m 9,1 C 10,0 C 7,1 km/h (2 Bft) 100,00 %
21/05/2019 02:17 10,0 C 93 % 1014,7 hPa 0,0 mm 4,2 km/h (1 Bft) NO 309 0 min 0 min 0,000 mm 0,0 UV-I 0 W/m 8,9 C 10,0 C 5,3 km/h (1 Bft) 100,00 %
21/05/2019 02:16 10,0 C 94 % 1014,7 hPa 0,0 mm 3,1 km/h (1 Bft) O-NO 288 0 min 0 min 0,000 mm 0,0 UV-I 0 W/m 9,1 C 10,0 C 5,3 km/h (1 Bft) 100,00 %
21/05/2019 02:15 10,0 C 93 % 1014,7 hPa 0,0 mm 3,0 km/h (1 Bft) O-NO 294 0 min 0 min 0,000 mm 0,0 UV-I 0 W/m 8,9 C 10,0 C 3,5 km/h (1 Bft) 100,00 %
21/05/2019 02:14 10,1 C 94 % 1014,8 hPa 0,0 mm 5,0 km/h (1 Bft) O 271 0 min 0 min 0,000 mm 0,0 UV-I 0 W/m 9,2 C 10,1 C 7,1 km/h (2 Bft) 100,00 %
21/05/2019 02:13 10,1 C 94 % 1014,7 hPa 0,0 mm 2,7 km/h (1 Bft) O-NO 295 0 min 0 min 0,000 mm 0,0 UV-I 0 W/m 9,2 C 10,1 C 7,1 km/h (2 Bft) 98,18 %
21/05/2019 02:11 10,1 C 94 % 1014,8 hPa 0,0 mm 4,4 km/h (1 Bft) O-NO 290 0 min 0 min 0,000 mm 0,0 UV-I 0 W/m 9,2 C 10,1 C 7,1 km/h (2 Bft) 100,00 %
21/05/2019 02:10 10,1 C 94 % 1014,8 hPa 0,0 mm 3,9 km/h (1 Bft) O-NO 286 0 min 0 min 0,000 mm 0,0 UV-I 0 W/m 9,2 C 10,1 C 7,1 km/h (2 Bft) 100,00 %
21/05/2019 02:09 10,1 C 94 % 1014,8 hPa 0,0 mm 4,7 km/h (1 Bft) O-NO 297 0 min 0 min 0,000 mm 0,0 UV-I 0 W/m 9,2 C 10,1 C 7,1 km/h (2 Bft) 95,83 %
21/05/2019 02:08 10,1 C 94 % 1014,8 hPa 0,0 mm 4,9 km/h (1 Bft) NO 313 0 min 0 min 0,000 mm 0,0 UV-I 0 W/m 9,2 C 10,1 C 7,1 km/h (2 Bft) 100,00 %
21/05/2019 02:07 10,1 C 94 % 1014,8 hPa 0,0 mm 4,6 km/h (1 Bft) O-NO 292 0 min 0 min 0,000 mm 0,0 UV-I 0 W/m 9,2 C 10,1 C 7,1 km/h (2 Bft) 100,00 %
21/05/2019 02:06 10,1 C 94 % 1014,8 hPa 0,0 mm 3,1 km/h (1 Bft) O-NO 302 0 min 0 min 0,000 mm 0,0 UV-I 0 W/m 9,2 C 10,1 C 5,3 km/h (1 Bft) 100,00 %
21/05/2019 02:05 10,1 C 94 % 1014,8 hPa 0,0 mm 2,1 km/h (1 Bft) NO 321 0 min 0 min 0,000 mm 0,0 UV-I 0 W/m 9,2 C 10,1 C 5,3 km/h (1 Bft) 100,00 %
21/05/2019 02:04 10,2 C 94 % 1014,8 hPa 0,0 mm 3,7 km/h (1 Bft) O-NO 284 0 min 0 min 0,000 mm 0,0 UV-I 0 W/m 9,3 C 10,2 C 7,1 km/h (2 Bft) 100,00 %
21/05/2019 02:03 10,2 C 94 % 1014,8 hPa 0,0 mm 4,2 km/h (1 Bft) O-NO 303 0 min 0 min 0,000 mm 0,0 UV-I 0 W/m 9,3 C 10,2 C 7,1 km/h (2 Bft) 92,00 %
21/05/2019 02:02 10,2 C 94 % 1014,8 hPa 0,0 mm 3,8 km/h (1 Bft) O-NO 294 0 min 0 min 0,000 mm 0,0 UV-I 0 W/m 9,3 C 10,2 C 5,3 km/h (1 Bft) 100,00 %
21/05/2019 02:01 10,2 C 94 % 1014,8 hPa 0,0 mm 3,5 km/h (1 Bft) O-NO 294 0 min 0 min 0,000 mm 0,0 UV-I 0 W/m 9,3 C 10,2 C 5,3 km/h (1 Bft) 96,00 %
21/05/2019 02:00 10,2 C 93 % 1014,8 hPa 0,0 mm 4,2 km/h (1 Bft) O-SO 258 0 min 0 min 0,000 mm 0,0 UV-I 0 W/m 9,1 C 10,2 C 5,3 km/h (1 Bft) 96,15 %
21/05/2019 01:59 10,3 C 93 % 1014,8 hPa 0,0 mm 2,8 km/h (1 Bft) O-NO 302 0 min 0 min 0,000 mm 0,0 UV-I 0 W/m 9,2 C 10,3 C 5,3 km/h (1 Bft) 100,00 %
21/05/2019 01:58 10,3 C 94 % 1014,8 hPa 0,0 mm 3,8 km/h (1 Bft) O-NO 292 0 min 0 min 0,000 mm 0,0 UV-I 0 W/m 9,4 C 10,3 C 5,3 km/h (1 Bft) 92,59 %
21/05/2019 01:57 10,3 C 93 % 1014,8 hPa 0,0 mm 3,1 km/h (1 Bft) O-NO 284 0 min 0 min 0,000 mm 0,0 UV-I 0 W/m 9,2 C 10,3 C 5,3 km/h (1 Bft) 100,00 %
21/05/2019 01:56 10,3 C 93 % 1014,8 hPa 0,0 mm 3,4 km/h (1 Bft) O-NO 287 0 min 0 min 0,000 mm 0,0 UV-I 0 W/m 9,2 C 10,3 C 5,3 km/h (1 Bft) 92,31 %
21/05/2019 01:55 10,3 C 93 % 1014,8 hPa 0,0 mm 2,4 km/h (1 Bft) O-NO 296 0 min 0 min 0,000 mm 0,0 UV-I 0 W/m 9,2 C 10,3 C 3,5 km/h (1 Bft) 100,00 %
21/05/2019 01:54 10,4 C 93 % 1014,8 hPa 0,0 mm 2,1 km/h (1 Bft) O 275 0 min 0 min 0,000 mm 0,0 UV-I 0 W/m 9,3 C 10,4 C 3,5 km/h (1 Bft) 93,75 %
21/05/2019 01:53 10,4 C 94 % 1014,8 hPa 0,0 mm 3,2 km/h (1 Bft) NO 323 0 min 0 min 0,000 mm 0,0 UV-I 0 W/m 9,5 C 10,4 C 5,3 km/h (1 Bft) 100,00 %
21/05/2019 01:52 10,4 C 94 % 1014,8 hPa 0,0 mm 3,0 km/h (1 Bft) O-NO 282 0 min 0 min 0,000 mm 0,0 UV-I 0 W/m 9,5 C 10,4 C 7,1 km/h (2 Bft) 100,00 %
21/05/2019 01:51 10,4 C 94 % 1014,9 hPa 0,0 mm 3,0 km/h (1 Bft) O-NO 292 0 min 0 min 0,000 mm 0,0 UV-I 0 W/m 9,5 C 10,4 C 5,3 km/h (1 Bft) 100,00 %
21/05/2019 01:50 10,5 C 94 % 1014,9 hPa 0,0 mm 3,6 km/h (1 Bft) O-NO 286 0 min 0 min 0,000 mm 0,0 UV-I 0 W/m 9,6 C 10,5 C 7,1 km/h (2 Bft) 100,00 %
21/05/2019 01:49 10,5 C 94 % 1014,9 hPa 0,0 mm 2,2 km/h (1 Bft) NO 304 0 min 0 min 0,000 mm 0,0 UV-I 0 W/m 9,6 C 10,5 C 5,3 km/h (1 Bft) 100,00 %
21/05/2019 01:48 10,6 C 93 % 1014,8 hPa 0,0 mm 0,0 km/h (0 Bft) O-NO 302 0 min 0 min 0,000 mm 0,0 UV-I 0 W/m 9,5 C 10,6 C 0,0 km/h (0 Bft) 100,00 %
21/05/2019 01:47 10,6 C 93 % 1014,9 hPa 0,0 mm 0,0 km/h (0 Bft) NO 306 0 min 0 min 0,000 mm 0,0 UV-I 0 W/m 9,5 C 10,6 C 0,0 km/h (0 Bft) 100,00 %
21/05/2019 01:46 10,6 C 93 % 1014,9 hPa 0,0 mm 2,3 km/h (1 Bft) NO 307 0 min 0 min 0,000 mm 0,0 UV-I 0 W/m 9,5 C 10,6 C 5,3 km/h (1 Bft) 100,00 %
21/05/2019 01:45 10,7 C 94 % 1014,9 hPa 0,0 mm 2,4 km/h (1 Bft) NO 307 0 min 0 min 0,000 mm 0,0 UV-I 0 W/m 9,8 C 10,7 C 7,1 km/h (2 Bft) 100,00 %
21/05/2019 01:44 10,7 C 94 % 1014,9 hPa 0,0 mm 2,7 km/h (1 Bft) N 355 0 min 0 min 0,000 mm 0,0 UV-I 0 W/m 9,8 C 10,7 C 5,3 km/h (1 Bft) 95,65 %
21/05/2019 01:43 10,7 C 93 % 1014,9 hPa 0,0 mm 4,4 km/h (1 Bft) O 281 0 min 0 min 0,000 mm 0,0 UV-I 0 W/m 9,6 C 10,7 C 7,1 km/h (2 Bft) 100,00 %
21/05/2019 01:42 10,7 C 93 % 1014,9 hPa 0,0 mm 3,1 km/h (1 Bft) O-NO 291 0 min 0 min 0,000 mm 0,0 UV-I 0 W/m 9,6 C 10,7 C 5,3 km/h (1 Bft) 100,00 %
21/05/2019 01:41 10,7 C 93 % 1014,9 hPa 0,0 mm 1,5 km/h (1 Bft) O-NO 292 0 min 0 min 0,000 mm 0,0 UV-I 0 W/m 9,6 C 10,7 C 5,3 km/h (1 Bft) 95,83 %
21/05/2019 01:40 10,7 C 94 % 1014,9 hPa 0,0 mm 2,5 km/h (1 Bft) O-NO 290 0 min 0 min 0,000 mm 0,0 UV-I 0 W/m 9,8 C 10,7 C 5,3 km/h (1 Bft) 96,00 %
21/05/2019 01:39 10,8 C 94 % 1015,0 hPa 0,0 mm 2,2 km/h (1 Bft) O 275 0 min 0 min 0,000 mm 0,0 UV-I 0 W/m 9,9 C 10,8 C 3,5 km/h (1 Bft) 100,00 %
21/05/2019 01:38 10,8 C 94 % 1014,9 hPa 0,0 mm 1,4 km/h (1 Bft) O-NO 284 0 min 0 min 0,000 mm 0,0 UV-I 0 W/m 9,9 C 10,8 C 3,5 km/h (1 Bft) 94,12 %
21/05/2019 01:37 10,8 C 94 % 1015,0 hPa 0,0 mm 3,5 km/h (1 Bft) O-NO 290 0 min 0 min 0,000 mm 0,0 UV-I 0 W/m 9,9 C 10,8 C 5,3 km/h (1 Bft) 100,00 %
21/05/2019 01:36 10,8 C 94 % 1015,0 hPa 0,0 mm 1,9 km/h (1 Bft) O-SO 248 0 min 0 min 0,000 mm 0,0 UV-I 0 W/m 9,9 C 10,8 C 5,3 km/h (1 Bft) 100,00 %
21/05/2019 01:35 10,8 C 94 % 1015,0 hPa 0,0 mm 2,5 km/h (1 Bft) O-NO 298 0 min 0 min 0,000 mm 0,0 UV-I 0 W/m 9,9 C 10,8 C 5,3 km/h (1 Bft) 100,00 %
21/05/2019 01:34 10,9 C 94 % 1014,9 hPa 0,0 mm 2,2 km/h (1 Bft) O-NO 290 0 min 0 min 0,000 mm 0,0 UV-I 0 W/m 10,0 C 10,9 C 3,5 km/h (1 Bft) 100,00 %
21/05/2019 01:33 10,9 C 94 % 1015,0 hPa 0,0 mm 3,6 km/h (1 Bft) O-NO 283 0 min 0 min 0,000 mm 0,0 UV-I 0 W/m 10,0 C 10,9 C 5,3 km/h (1 Bft) 100,00 %
21/05/2019 01:32 10,9 C 94 % 1015,0 hPa 0,0 mm 3,4 km/h (1 Bft) O-NO 292 0 min 0 min 0,000 mm 0,0 UV-I 0 W/m 10,0 C 10,9 C 7,1 km/h (2 Bft) 100,00 %
21/05/2019 01:31 10,9 C 94 % 1015,0 hPa 0,0 mm 3,5 km/h (1 Bft) O-NO 297 0 min 0 min 0,000 mm 0,0 UV-I 0 W/m 10,0 C 10,9 C 5,3 km/h (1 Bft) 88,89 %
21/05/2019 01:30 10,9 C 94 % 1014,9 hPa 0,0 mm 3,5 km/h (1 Bft) O-NO 286 0 min 0 min 0,000 mm 0,0 UV-I 0 W/m 10,0 C 10,9 C 5,3 km/h (1 Bft) 95,24 %
21/05/2019 01:29 10,9 C 94 % 1014,9 hPa 0,0 mm 2,6 km/h (1 Bft) O-NO 302 0 min 0 min 0,000 mm 0,0 UV-I 0 W/m 10,0 C 10,9 C 5,3 km/h (1 Bft) 97,57 %
21/05/2019 01:28 11,0 C 94 % 1014,9 hPa 0,0 mm 4,8 km/h (1 Bft) O-NO 298 0 min 0 min 0,000 mm 0,0 UV-I 0 W/m 10,1 C 11,0 C 7,1 km/h (2 Bft) 100,00 %
21/05/2019 01:27 11,0 C 94 % 1015,0 hPa 0,0 mm 4,0 km/h (1 Bft) O-NO 286 0 min 0 min 0,000 mm 0,0 UV-I 0 W/m 10,1 C 11,0 C 7,1 km/h (2 Bft) 95,65 %
21/05/2019 01:26 11,0 C 94 % 1015,0 hPa 0,0 mm 4,1 km/h (1 Bft) NO 305 0 min 0 min 0,000 mm 0,0 UV-I 0 W/m 10,1 C 11,0 C 7,1 km/h (2 Bft) 95,83 %
21/05/2019 01:25 11,1 C 94 % 1015,0 hPa 0,0 mm 3,9 km/h (1 Bft) N-NO 336 0 min 0 min 0,000 mm 0,0 UV-I 0 W/m 10,2 C 11,1 C 5,3 km/h (1 Bft) 96,00 %
21/05/2019 01:24 11,1 C 94 % 1015,0 hPa 0,0 mm 3,5 km/h (1 Bft) O-NO 290 0 min 0 min 0,000 mm 0,0 UV-I 0 W/m 10,2 C 11,1 C 7,1 km/h (2 Bft) 95,83 %
21/05/2019 01:23 11,1 C 94 % 1015,0 hPa 0,0 mm 3,1 km/h (1 Bft) O-NO 293 0 min 0 min 0,000 mm 0,0 UV-I 0 W/m 10,2 C 11,1 C 5,3 km/h (1 Bft) 92,31 %
21/05/2019 01:22 11,1 C 94 % 1015,0 hPa 0,0 mm 2,1 km/h (1 Bft) NO 320 0 min 0 min 0,000 mm 0,0 UV-I 0 W/m 10,2 C 11,1 C 5,3 km/h (1 Bft) 100,00 %
21/05/2019 01:21 11,1 C 94 % 1015,0 hPa 0,0 mm 2,3 km/h (1 Bft) O-NO 298 0 min 0 min 0,000 mm 0,0 UV-I 0 W/m 10,2 C 11,1 C 5,3 km/h (1 Bft) 100,00 %
21/05/2019 01:20 11,1 C 94 % 1015,0 hPa 0,0 mm 3,1 km/h (1 Bft) O-NO 297 0 min 0 min 0,000 mm 0,0 UV-I 0 W/m 10,2 C 11,1 C 3,5 km/h (1 Bft) 100,00 %
21/05/2019 01:19 11,1 C 94 % 1015,0 hPa 0,0 mm 2,8 km/h (1 Bft) O-NO 295 0 min 0 min 0,000 mm 0,0 UV-I 0 W/m 10,2 C 11,1 C 3,5 km/h (1 Bft) 96,88 %
21/05/2019 01:18 11,1 C 94 % 1015,0 hPa 0,0 mm 4,1 km/h (1 Bft) O-NO 292 0 min 0 min 0,000 mm 0,0 UV-I 0 W/m 10,2 C 11,1 C 7,1 km/h (2 Bft) 100,00 %
21/05/2019 01:17 11,1 C 94 % 1015,0 hPa 0,0 mm 2,4 km/h (1 Bft) O 281 0 min 0 min 0,000 mm 0,0 UV-I 0 W/m 10,2 C 11,1 C 3,5 km/h (1 Bft) 100,00 %
21/05/2019 01:16 11,1 C 94 % 1015,0 hPa 0,0 mm 2,1 km/h (1 Bft) O-NO 288 0 min 0 min 0,000 mm 0,0 UV-I 0 W/m 10,2 C 11,1 C 5,3 km/h (1 Bft) 100,00 %
21/05/2019 01:15 11,1 C 94 % 1014,9 hPa 0,0 mm 2,4 km/h (1 Bft) O 278 0 min 0 min 0,000 mm 0,0 UV-I 0 W/m 10,2 C 11,1 C 3,5 km/h (1 Bft) 95,83 %
21/05/2019 01:14 11,1 C 94 % 1014,9 hPa 0,0 mm 2,2 km/h (1 Bft) O 277 0 min 0 min 0,000 mm 0,0 UV-I 0 W/m 10,2 C 11,1 C 3,5 km/h (1 Bft) 100,00 %
21/05/2019 01:13 11,1 C 94 % 1014,9 hPa 0,0 mm 3,3 km/h (1 Bft) O 277 0 min 0 min 0,000 mm 0,0 UV-I 0 W/m 10,2 C 11,1 C 5,3 km/h (1 Bft) 100,00 %
21/05/2019 01:12 11,1 C 94 % 1015,0 hPa 0,0 mm 2,2 km/h (1 Bft) NO 315 0 min 0 min 0,000 mm 0,0 UV-I 0 W/m 10,2 C 11,1 C 3,5 km/h (1 Bft) 100,00 %
21/05/2019 01:11 11,1 C 94 % 1014,9 hPa 0,0 mm 1,2 km/h (1 Bft) NO 323 0 min 0 min 0,000 mm 0,0 UV-I 0 W/m 10,2 C 11,1 C 5,3 km/h (1 Bft) 100,00 %
21/05/2019 01:10 11,1 C 94 % 1015,0 hPa 0,0 mm 1,0 km/h (0 Bft) O-NO 299 0 min 0 min 0,000 mm 0,0 UV-I 0 W/m 10,2 C 11,1 C 3,5 km/h (1 Bft) 100,00 %
21/05/2019 01:09 11,1 C 94 % 1015,0 hPa 0,0 mm 1,7 km/h (1 Bft) O-NO 298 0 min 0 min 0,000 mm 0,0 UV-I 0 W/m 10,2 C 11,1 C 5,3 km/h (1 Bft) 100,00 %
21/05/2019 01:08 11,1 C 94 % 1015,0 hPa 0,0 mm 1,6 km/h (1 Bft) O-NO 298 0 min 0 min 0,000 mm 0,0 UV-I 0 W/m 10,2 C 11,1 C 1,8 km/h (1 Bft) 100,00 %
21/05/2019 01:07 11,1 C 94 % 1015,0 hPa 0,0 mm 2,1 km/h (1 Bft) O-NO 298 0 min 0 min 0,000 mm 0,0 UV-I 0 W/m 10,2 C 11,1 C 3,5 km/h (1 Bft) 98,04 %
21/05/2019 01:05 11,0 C 94 % 1015,0 hPa 0,0 mm 0,8 km/h (0 Bft) O-NO 298 0 min 0 min 0,000 mm 0,0 UV-I 0 W/m 10,1 C 11,0 C 1,8 km/h (1 Bft) 100,00 %
21/05/2019 01:04 11,0 C 94 % 1015,0 hPa 0,0 mm 1,5 km/h (1 Bft) O-NO 298 0 min 0 min 0,000 mm 0,0 UV-I 0 W/m 10,1 C 11,0 C 3,5 km/h (1 Bft) 96,00 %
21/05/2019 01:03 10,9 C 94 % 1015,0 hPa 0,0 mm 0,8 km/h (0 Bft) O-NO 298 0 min 0 min 0,000 mm 0,0 UV-I 0 W/m 10,0 C 10,9 C 1,8 km/h (1 Bft) 96,15 %
21/05/2019 01:02 10,9 C 94 % 1015,0 hPa 0,0 mm 1,3 km/h (1 Bft) O-NO 298 0 min 0 min 0,000 mm 0,0 UV-I 0 W/m 10,0 C 10,9 C 3,5 km/h (1 Bft) 100,00 %
21/05/2019 01:01 10,9 C 94 % 1015,0 hPa 0,0 mm 2,8 km/h (1 Bft) O-NO 298 0 min 0 min 0,000 mm 0,0 UV-I 0 W/m 10,0 C 10,9 C 3,5 km/h (1 Bft) 91,67 %
21/05/2019 01:00 10,9 C 94 % 1015,0 hPa 0,0 mm 3,1 km/h (1 Bft) O-NO 298 0 min 0 min 0,000 mm 0,0 UV-I 0 W/m 10,0 C 10,9 C 5,3 km/h (1 Bft) 100,00 %
21/05/2019 00:59 10,9 C 94 % 1015,0 hPa 0,0 mm 2,7 km/h (1 Bft) O-NO 300 0 min 0 min 0,000 mm 0,0 UV-I 0 W/m 10,0 C 10,9 C 5,3 km/h (1 Bft) 96,00 %
21/05/2019 00:58 10,9 C 94 % 1015,1 hPa 0,0 mm 1,2 km/h (1 Bft) O-NO 302 0 min 0 min 0,000 mm 0,0 UV-I 0 W/m 10,0 C 10,9 C 5,3 km/h (1 Bft) 100,00 %
21/05/2019 00:57 10,8 C 94 % 1015,1 hPa 0,0 mm 0,0 km/h (0 Bft) O-NO 302 0 min 0 min 0,000 mm 0,0 UV-I 0 W/m 9,9 C 10,8 C 0,0 km/h (0 Bft) 92,00 %
21/05/2019 00:56 10,8 C 94 % 1015,1 hPa 0,0 mm 0,0 km/h (0 Bft) O-NO 302 0 min 0 min 0,000 mm 0,0 UV-I 0 W/m 9,9 C 10,8 C 0,0 km/h (0 Bft) 95,83 %
21/05/2019 00:55 10,8 C 94 % 1015,1 hPa 0,0 mm 2,3 km/h (1 Bft) O-NO 300 0 min 0 min 0,000 mm 0,0 UV-I 0 W/m 9,9 C 10,8 C 5,3 km/h (1 Bft) 95,45 %
21/05/2019 00:54 10,8 C 94 % 1015,1 hPa 0,0 mm 3,4 km/h (1 Bft) NO 313 0 min 0 min 0,000 mm 0,0 UV-I 0 W/m 9,9 C 10,8 C 5,3 km/h (1 Bft) 97,40 %
21/05/2019 00:53 10,8 C 94 % 1015,1 hPa 0,0 mm 2,1 km/h (1 Bft) NO 323 0 min 0 min 0,000 mm 0,0 UV-I 0 W/m 9,9 C 10,8 C 5,3 km/h (1 Bft) 91,67 %
21/05/2019 00:52 10,8 C 94 % 1015,1 hPa 0,0 mm 4,2 km/h (1 Bft) N-NO 327 0 min 0 min 0,000 mm 0,0 UV-I 0 W/m 9,9 C 10,8 C 5,3 km/h (1 Bft) 93,33 %
21/05/2019 00:51 10,7 C 94 % 1015,1 hPa 0,0 mm 2,7 km/h (1 Bft) O-NO 288 0 min 0 min 0,000 mm 0,0 UV-I 0 W/m 9,8 C 10,7 C 3,5 km/h (1 Bft) 100,00 %
21/05/2019 00:50 10,7 C 94 % 1015,0 hPa 0,0 mm 4,6 km/h (1 Bft) O-NO 286 0 min 0 min 0,000 mm 0,0 UV-I 0 W/m 9,8 C 10,7 C 5,3 km/h (1 Bft) 86,67 %
21/05/2019 00:49 10,7 C 94 % 1015,0 hPa 0,0 mm 4,0 km/h (1 Bft) O-NO 290 0 min 0 min 0,000 mm 0,0 UV-I 0 W/m 9,8 C 10,7 C 5,3 km/h (1 Bft) 100,00 %
21/05/2019 00:48 10,7 C 94 % 1015,0 hPa 0,0 mm 3,6 km/h (1 Bft) O-NO 295 0 min 0 min 0,000 mm 0,0 UV-I 0 W/m 9,8 C 10,7 C 5,3 km/h (1 Bft) 97,62 %
21/05/2019 00:47 10,7 C 94 % 1015,1 hPa 0,0 mm 2,4 km/h (1 Bft) O-NO 296 0 min 0 min 0,000 mm 0,0 UV-I 0 W/m 9,8 C 10,7 C 3,5 km/h (1 Bft) 92,86 %
21/05/2019 00:46 10,7 C 94 % 1015,0 hPa 0,0 mm 3,1 km/h (1 Bft) O-NO 296 0 min 0 min 0,000 mm 0,0 UV-I 0 W/m 9,8 C 10,7 C 5,3 km/h (1 Bft) 100,00 %
21/05/2019 00:45 10,6 C 94 % 1015,0 hPa 0,0 mm 5,8 km/h (2 Bft) NO 319 0 min 0 min 0,000 mm 0,0 UV-I 0 W/m 9,7 C 10,6 C 10,6 km/h (2 Bft) 96,00 %
21/05/2019 00:44 10,6 C 94 % 1015,1 hPa 0,0 mm 3,7 km/h (1 Bft) O-NO 293 0 min 0 min 0,000 mm 0,0 UV-I 0 W/m 9,7 C 10,6 C 5,3 km/h (1 Bft) 100,00 %
21/05/2019 00:43 10,6 C 94 % 1015,1 hPa 0,0 mm 3,5 km/h (1 Bft) O-NO 295 0 min 0 min 0,000 mm 0,0 UV-I 0 W/m 9,7 C 10,6 C 5,3 km/h (1 Bft) 92,31 %
21/05/2019 00:42 10,6 C 94 % 1015,1 hPa 0,0 mm 3,3 km/h (1 Bft) O-NO 295 0 min 0 min 0,000 mm 0,0 UV-I 0 W/m 9,7 C 10,6 C 5,3 km/h (1 Bft) 96,08 %
21/05/2019 00:40 10,6 C 94 % 1015,1 hPa 0,0 mm 4,5 km/h (1 Bft) NO 307 0 min 0 min 0,000 mm 0,0 UV-I 0 W/m 9,7 C 10,6 C 8,9 km/h (2 Bft) 100,00 %
21/05/2019 00:39 10,6 C 94 % 1015,0 hPa 0,0 mm 3,8 km/h (1 Bft) NO 304 0 min 0 min 0,000 mm 0,0 UV-I 0 W/m 9,7 C 10,6 C 7,1 km/h (2 Bft) 95,83 %
21/05/2019 00:38 10,6 C 94 % 1015,0 hPa 0,0 mm 2,7 km/h (1 Bft) NO 309 0 min 0 min 0,000 mm 0,0 UV-I 0 W/m 9,7 C 10,6 C 5,3 km/h (1 Bft) 95,83 %
21/05/2019 00:37 10,6 C 94 % 1015,0 hPa 0,0 mm 2,4 km/h (1 Bft) O-NO 300 0 min 0 min 0,000 mm 0,0 UV-I 0 W/m 9,7 C 10,6 C 5,3 km/h (1 Bft) 100,00 %
21/05/2019 00:36 10,7 C 94 % 1015,0 hPa 0,0 mm 4,1 km/h (1 Bft) O-NO 296 0 min 0 min 0,000 mm 0,0 UV-I 0 W/m 9,8 C 10,7 C 5,3 km/h (1 Bft) 95,83 %
21/05/2019 00:35 10,7 C 94 % 1015,0 hPa 0,0 mm 2,5 km/h (1 Bft) NO 325 0 min 0 min 0,000 mm 0,0 UV-I 0 W/m 9,8 C 10,7 C 7,1 km/h (2 Bft) 100,00 %
21/05/2019 00:34 10,7 C 94 % 1015,0 hPa 0,0 mm 3,5 km/h (1 Bft) NO 319 0 min 0 min 0,000 mm 0,0 UV-I 0 W/m 9,8 C 10,7 C 5,3 km/h (1 Bft) 92,59 %
21/05/2019 00:33 10,7 C 94 % 1015,0 hPa 0,0 mm 2,5 km/h (1 Bft) NO 304 0 min 0 min 0,000 mm 0,0 UV-I 0 W/m 9,8 C 10,7 C 5,3 km/h (1 Bft) 100,00 %
21/05/2019 00:32 10,7 C 94 % 1015,0 hPa 0,0 mm 2,7 km/h (1 Bft) O-NO 298 0 min 0 min 0,000 mm 0,0 UV-I 0 W/m 9,8 C 10,7 C 5,3 km/h (1 Bft) 96,55 %
21/05/2019 00:31 10,7 C 94 % 1015,0 hPa 0,0 mm 2,2 km/h (1 Bft) O-NO 288 0 min 0 min 0,000 mm 0,0 UV-I 0 W/m 9,8 C 10,7 C 3,5 km/h (1 Bft) 100,00 %
21/05/2019 00:30 10,7 C 94 % 1014,9 hPa 0,0 mm 3,0 km/h (1 Bft) O-NO 290 0 min 0 min 0,000 mm 0,0 UV-I 0 W/m 9,8 C 10,7 C 3,5 km/h (1 Bft) 96,30 %
21/05/2019 00:29 10,7 C 94 % 1014,9 hPa 0,0 mm 3,0 km/h (1 Bft) NO 309 0 min 0 min 0,000 mm 0,0 UV-I 0 W/m 9,8 C 10,7 C 5,3 km/h (1 Bft) 100,00 %
21/05/2019 00:28 10,8 C 94 % 1014,9 hPa 0,0 mm 3,5 km/h (1 Bft) O-NO 293 0 min 0 min 0,000 mm 0,0 UV-I 0 W/m 9,9 C 10,8 C 7,1 km/h (2 Bft) 96,00 %
21/05/2019 00:27 10,8 C 94 % 1014,9 hPa 0,0 mm 3,6 km/h (1 Bft) O-NO 302 0 min 0 min 0,000 mm 0,0 UV-I 0 W/m 9,9 C 10,8 C 7,1 km/h (2 Bft) 100,00 %
21/05/2019 00:26 10,8 C 94 % 1014,9 hPa 0,0 mm 3,1 km/h (1 Bft) O-NO 296 0 min 0 min 0,000 mm 0,0 UV-I 0 W/m 9,9 C 10,8 C 5,3 km/h (1 Bft) 100,00 %
21/05/2019 00:25 10,8 C 94 % 1015,0 hPa 0,0 mm 1,5 km/h (1 Bft) O-NO 294 0 min 0 min 0,000 mm 0,0 UV-I 0 W/m 9,9 C 10,8 C 3,5 km/h (1 Bft) 96,30 %
21/05/2019 00:24 10,8 C 94 % 1014,9 hPa 0,0 mm 3,4 km/h (1 Bft) O 277 0 min 0 min 0,000 mm 0,0 UV-I 0 W/m 9,9 C 10,8 C 5,3 km/h (1 Bft) 100,00 %
21/05/2019 00:23 10,8 C 94 % 1015,0 hPa 0,0 mm 2,6 km/h (1 Bft) O 273 0 min 0 min 0,000 mm 0,0 UV-I 0 W/m 9,9 C 10,8 C 3,5 km/h (1 Bft) 100,00 %
21/05/2019 00:22 10,8 C 94 % 1015,0 hPa 0,0 mm 4,1 km/h (1 Bft) O-NO 288 0 min 0 min 0,000 mm 0,0 UV-I 0 W/m 9,9 C 10,8 C 7,1 km/h (2 Bft) 100,00 %
21/05/2019 00:21 10,8 C 93 % 1014,9 hPa 0,0 mm 3,9 km/h (1 Bft) O-NO 300 0 min 0 min 0,000 mm 0,0 UV-I 0 W/m 9,7 C 10,8 C 7,1 km/h (2 Bft) 96,88 %
21/05/2019 00:20 10,9 C 93 % 1014,9 hPa 0,0 mm 5,1 km/h (1 Bft) O-NO 288 0 min 0 min 0,000 mm 0,0 UV-I 0 W/m 9,8 C 10,9 C 7,1 km/h (2 Bft) 100,00 %
21/05/2019 00:19 10,9 C 94 % 1014,9 hPa 0,0 mm 4,3 km/h (1 Bft) O-NO 293 0 min 0 min 0,000 mm 0,0 UV-I 0 W/m 10,0 C 10,9 C 7,1 km/h (2 Bft) 92,00 %
21/05/2019 00:18 10,9 C 93 % 1014,9 hPa 0,0 mm 2,6 km/h (1 Bft) O-NO 293 0 min 0 min 0,000 mm 0,0 UV-I 0 W/m 9,8 C 10,9 C 5,3 km/h (1 Bft) 95,83 %
21/05/2019 00:17 10,9 C 93 % 1015,0 hPa 0,0 mm 2,3 km/h (1 Bft) N-NO 327 0 min 0 min 0,000 mm 0,0 UV-I 0 W/m 9,8 C 10,9 C 3,5 km/h (1 Bft) 100,00 %
21/05/2019 00:16 11,0 C 93 % 1014,9 hPa 0,0 mm 3,3 km/h (1 Bft) O-NO 282 0 min 0 min 0,000 mm 0,0 UV-I 0 W/m 9,9 C 11,0 C 8,9 km/h (2 Bft) 100,00 %
21/05/2019 00:15 11,0 C 93 % 1014,9 hPa 0,0 mm 3,7 km/h (1 Bft) NO 309 0 min 0 min 0,000 mm 0,0 UV-I 0 W/m 9,9 C 11,0 C 5,3 km/h (1 Bft) 95,83 %
21/05/2019 00:14 11,0 C 93 % 1014,9 hPa 0,0 mm 5,0 km/h (1 Bft) O 274 0 min 0 min 0,000 mm 0,0 UV-I 0 W/m 9,9 C 11,0 C 7,1 km/h (2 Bft) 100,00 %
21/05/2019 00:13 11,0 C 93 % 1014,8 hPa 0,0 mm 2,6 km/h (1 Bft) O-NO 298 0 min 0 min 0,000 mm 0,0 UV-I 0 W/m 9,9 C 11,0 C 5,3 km/h (1 Bft) 100,00 %
21/05/2019 00:12 11,0 C 93 % 1014,8 hPa 0,0 mm 3,6 km/h (1 Bft) NO 308 0 min 0 min 0,000 mm 0,0 UV-I 0 W/m 9,9 C 11,0 C 7,1 km/h (2 Bft) 100,00 %
21/05/2019 00:11 11,1 C 93 % 1014,8 hPa 0,0 mm 3,4 km/h (1 Bft) O-NO 289 0 min 0 min 0,000 mm 0,0 UV-I 0 W/m 10,0 C 11,1 C 5,3 km/h (1 Bft) 100,00 %
21/05/2019 00:10 11,1 C 93 % 1014,8 hPa 0,0 mm 2,1 km/h (1 Bft) NO 305 0 min 0 min 0,000 mm 0,0 UV-I 0 W/m 10,0 C 11,1 C 5,3 km/h (1 Bft) 100,00 %
21/05/2019 00:09 11,1 C 93 % 1014,9 hPa 0,0 mm 4,0 km/h (1 Bft) O-NO 284 0 min 0 min 0,000 mm 0,0 UV-I 0 W/m 10,0 C 11,1 C 7,1 km/h (2 Bft) 100,00 %
21/05/2019 00:08 11,1 C 93 % 1014,9 hPa 0,0 mm 2,4 km/h (1 Bft) O-NO 293 0 min 0 min 0,000 mm 0,0 UV-I 0 W/m 10,0 C 11,1 C 3,5 km/h (1 Bft) 100,00 %
21/05/2019 00:07 11,1 C 93 % 1014,8 hPa 0,0 mm 4,9 km/h (1 Bft) O 280 0 min 0 min 0,000 mm 0,0 UV-I 0 W/m 10,0 C 11,1 C 7,1 km/h (2 Bft) 100,00 %
21/05/2019 00:06 11,1 C 93 % 1014,8 hPa 0,0 mm 4,0 km/h (1 Bft) O 262 0 min 0 min 0,000 mm 0,0 UV-I 0 W/m 10,0 C 11,1 C 7,1 km/h (2 Bft) 96,67 %
21/05/2019 00:05 11,1 C 93 % 1014,8 hPa 0,0 mm 3,5 km/h (1 Bft) O 275 0 min 0 min 0,000 mm 0,0 UV-I 0 W/m 10,0 C 11,1 C 7,1 km/h (2 Bft) 93,33 %
21/05/2019 00:03 11,1 C 93 % 1014,8 hPa 0,0 mm 4,7 km/h (1 Bft) O-NO 284 0 min 0 min 0,000 mm 0,0 UV-I 0 W/m 10,0 C 11,1 C 7,1 km/h (2 Bft) 100,00 %
21/05/2019 00:02 11,1 C 93 % 1014,8 hPa 0,0 mm 3,8 km/h (1 Bft) NO 310 0 min 0 min 0,000 mm 0,0 UV-I 0 W/m 10,0 C 11,1 C 5,3 km/h (1 Bft) 100,00 %
21/05/2019 00:01 11,2 C 93 % 1014,8 hPa 0,0 mm 3,5 km/h (1 Bft) O-NO 298 0 min 0 min 0,000 mm 0,0 UV-I 0 W/m 10,1 C 11,2 C 7,1 km/h (2 Bft) 100,00 %
_ Min-Heure 05:59 11:05 02:34 - 00:56 - - - - - - - 05:48 05:59 00:56 03:04
Minimum _ 7,4 C 72 % 1014,6 hPa - 0,0 km/h (0 Bft) - - - - - - - 6,8 C 7,4 C 0,0 km/h (0 Bft) 83,33 %
_ Max-Heure 10:37 05:38 10:59 00:01 11:04 - - 09:43 00:01 11:01 11:05 11:00 10:33 10:35 11:07 00:01
Maximum _ 18,3 C 96 % 1017,0 hPa 0,0 mm 16,7 km/h
NE (3 Bft)
- - 2 min 0 min 0,356 mm 3,0 UV-I 813 W/m 14,4 C 18,2 C 26,6 km/h
N (4 Bft)
100,00 %
Moyenne _ 10,8 C 92 % 1015,5 hPa #0,0 mm 2,6 km/h (1 Bft) NO - #1:39 h #0 min. #0,610 mm 1,5 UV-I 254 W/m 9,5 C 10,7 C 4,5 km/h (1 Bft) 97,90 %
Grandfresnoy - Oise - Picardie